Time,TemperatureF,DewpointF,PressureIn,WindDirection,WindDirectionDegrees,WindSpeedMPH,WindSpeedGustMPH,Humidity,HourlyPrecipIn,Conditions,Clouds,dailyrainin,SoftwareType,DateUTC
2013-01-07 00:00:00,29.4,26.8,30.04,South,172,0.0,0.0,90,0.00,,,0.00,Wunderground v.1.15,2013-01-07 05:00:00,
2013-01-07 00:01:00,29.3,26.7,30.04,South,172,0.0,0.0,90,0.00,,,0.00,Wunderground v.1.15,2013-01-07 05:01:00,
2013-01-07 00:02:00,29.2,26.6,30.04,South,172,0.0,0.0,90,0.00,,,0.00,Wunderground v.1.15,2013-01-07 05:02:00,
2013-01-07 00:03:00,29.2,26.6,30.04,South,172,0.0,0.0,90,0.00,,,0.00,Wunderground v.1.15,2013-01-07 05:03:00,
2013-01-07 00:06:00,29.1,26.5,30.05,South,172,1.0,1.0,90,0.00,,,0.00,Wunderground v.1.15,2013-01-07 05:06:00,
2013-01-07 00:07:00,29.1,26.8,30.05,South,172,0.0,1.0,91,0.00,,,0.00,Wunderground v.1.15,2013-01-07 05:07:00,
2013-01-07 00:09:00,29.1,26.8,30.05,South,172,2.0,2.0,91,0.00,,,0.00,Wunderground v.1.15,2013-01-07 05:09:00,
2013-01-07 00:13:00,29.6,27.3,30.05,South,172,0.0,3.0,91,0.00,,,0.00,Wunderground v.1.15,2013-01-07 05:13:00,
2013-01-07 00:16:00,29.8,27.5,30.05,South,172,0.0,3.0,91,0.00,,,0.00,Wunderground v.1.15,2013-01-07 05:16:00,
2013-01-07 00:19:00,30.1,27.5,30.05,South,172,1.0,3.0,90,0.00,,,0.00,Wunderground v.1.15,2013-01-07 05:19:00,
2013-01-07 00:20:00,30.2,27.6,30.05,South,172,1.0,1.0,90,0.00,,,0.00,Wunderground v.1.15,2013-01-07 05:20:00,
2013-01-07 00:21:00,30.3,27.7,30.05,South,172,1.0,1.0,90,0.00,,,0.00,Wunderground v.1.15,2013-01-07 05:21:00,
2013-01-07 00:25:00,30.7,27.8,30.05,South,172,1.0,2.0,89,0.00,,,0.00,Wunderground v.1.15,2013-01-07 05:25:00,
2013-01-07 00:26:00,30.8,27.9,30.05,South,172,1.0,2.0,89,0.00,,,0.00,Wunderground v.1.15,2013-01-07 05:26:00,
2013-01-07 00:27:00,30.9,28.0,30.05,South,172,1.0,2.0,89,0.00,,,0.00,Wunderground v.1.15,2013-01-07 05:27:00,
2013-01-07 00:31:00,31.0,27.9,30.05,South,172,2.0,2.0,88,0.00,,,0.00,Wunderground v.1.15,2013-01-07 05:31:00,
2013-01-07 00:32:00,31.0,27.9,30.05,South,172,2.0,2.0,88,0.00,,,0.00,Wunderground v.1.15,2013-01-07 05:32:00,
2013-01-07 00:38:00,31.3,28.2,30.04,South,172,0.0,3.0,88,0.00,,,0.00,Wunderground v.1.15,2013-01-07 05:38:00,
2013-01-07 00:41:00,31.3,27.9,30.05,South,172,1.0,1.0,87,0.00,,,0.00,Wunderground v.1.15,2013-01-07 05:41:00,
2013-01-07 00:44:00,31.3,27.9,30.05,South,172,1.0,2.0,87,0.00,,,0.00,Wunderground v.1.15,2013-01-07 05:44:00,
2013-01-07 00:48:00,31.3,27.9,30.05,South,172,1.0,2.0,87,0.00,,,0.00,Wunderground v.1.15,2013-01-07 05:48:00,
2013-01-07 00:50:00,31.3,27.9,30.05,South,172,0.0,1.0,87,0.00,,,0.00,Wunderground v.1.15,2013-01-07 05:50:00,
2013-01-07 00:54:00,31.3,27.9,30.05,South,172,0.0,1.0,87,0.00,,,0.00,Wunderground v.1.15,2013-01-07 05:54:00,
2013-01-07 00:56:00,31.3,27.9,30.05,South,172,3.0,3.0,87,0.00,,,0.00,Wunderground v.1.15,2013-01-07 05:56:00,
2013-01-07 01:01:00,31.5,28.1,30.06,South,172,2.0,2.0,87,0.00,,,0.00,Wunderground v.1.15,2013-01-07 06:01:00,
2013-01-07 01:02:00,31.5,28.1,30.06,South,172,1.0,2.0,87,0.00,,,0.00,Wunderground v.1.15,2013-01-07 06:02:00,
2013-01-07 01:03:00,31.5,27.8,30.06,South,172,1.0,2.0,86,0.00,,,0.00,Wunderground v.1.15,2013-01-07 06:03:00,
2013-01-07 01:07:00,31.5,27.8,30.06,South,172,0.0,2.0,86,0.00,,,0.00,Wunderground v.1.15,2013-01-07 06:07:00,
2013-01-07 01:08:00,31.4,27.7,30.06,South,172,0.0,2.0,86,0.00,,,0.00,Wunderground v.1.15,2013-01-07 06:08:00,
2013-01-07 01:11:00,31.3,27.9,30.06,South,172,0.0,1.0,87,0.00,,,0.00,Wunderground v.1.15,2013-01-07 06:11:00,
2013-01-07 01:12:00,31.3,27.9,30.06,South,172,0.0,1.0,87,0.00,,,0.00,Wunderground v.1.15,2013-01-07 06:12:00,
2013-01-07 01:15:00,31.2,27.8,30.06,South,172,0.0,1.0,87,0.00,,,0.00,Wunderground v.1.15,2013-01-07 06:15:00,
2013-01-07 01:17:00,31.2,27.8,30.06,South,172,0.0,1.0,87,0.00,,,0.00,Wunderground v.1.15,2013-01-07 06:17:00,
2013-01-07 01:19:00,31.3,27.9,30.06,South,172,0.0,1.0,87,0.00,,,0.00,Wunderground v.1.15,2013-01-07 06:19:00,
2013-01-07 01:21:00,31.2,27.8,30.06,South,172,0.0,0.0,87,0.00,,,0.00,Wunderground v.1.15,2013-01-07 06:21:00,
2013-01-07 01:26:00,31.1,27.7,30.07,South,172,0.0,0.0,87,0.00,,,0.00,Wunderground v.1.15,2013-01-07 06:26:00,
2013-01-07 01:27:00,31.0,27.6,30.07,South,172,0.0,0.0,87,0.00,,,0.00,Wunderground v.1.15,2013-01-07 06:27:00,
2013-01-07 01:29:00,31.0,27.6,30.07,South,172,0.0,0.0,87,0.00,,,0.00,Wunderground v.1.15,2013-01-07 06:29:00,
2013-01-07 01:32:00,30.9,27.8,30.07,South,172,0.0,0.0,88,0.00,,,0.00,Wunderground v.1.15,2013-01-07 06:32:00,
2013-01-07 01:35:00,30.8,27.7,30.07,South,172,0.0,0.0,88,0.00,,,0.00,Wunderground v.1.15,2013-01-07 06:35:00,
2013-01-07 01:36:00,30.7,27.6,30.07,South,172,0.0,0.0,88,0.00,,,0.00,Wunderground v.1.15,2013-01-07 06:36:00,
2013-01-07 01:39:00,30.6,27.5,30.07,South,172,0.0,0.0,88,0.00,,,0.00,Wunderground v.1.15,2013-01-07 06:39:00,
2013-01-07 01:42:00,30.5,27.4,30.07,South,172,0.0,0.0,88,0.00,,,0.00,Wunderground v.1.15,2013-01-07 06:42:00,
2013-01-07 01:43:00,30.6,27.5,30.07,South,172,0.0,0.0,88,0.00,,,0.00,Wunderground v.1.15,2013-01-07 06:43:00,
2013-01-07 01:45:00,30.5,27.6,30.07,South,172,0.0,0.0,89,0.00,,,0.00,Wunderground v.1.15,2013-01-07 06:45:00,
2013-01-07 01:50:00,30.7,27.6,30.08,South,172,0.0,0.0,88,0.00,,,0.00,Wunderground v.1.15,2013-01-07 06:50:00,
2013-01-07 01:53:00,30.7,27.6,30.08,South,172,0.0,0.0,88,0.00,,,0.00,Wunderground v.1.15,2013-01-07 06:53:00,
2013-01-07 01:54:00,30.7,27.6,30.08,South,172,0.0,0.0,88,0.00,,,0.00,Wunderground v.1.15,2013-01-07 06:54:00,
2013-01-07 01:55:00,30.7,27.6,30.08,South,172,0.0,0.0,88,0.00,,,0.00,Wunderground v.1.15,2013-01-07 06:55:00,
2013-01-07 01:57:00,30.7,27.6,30.08,South,172,0.0,0.0,88,0.00,,,0.00,Wunderground v.1.15,2013-01-07 06:57:00,
2013-01-07 02:01:00,30.7,27.6,30.08,South,172,1.0,1.0,88,0.00,,,0.00,Wunderground v.1.15,2013-01-07 07:01:00,
2013-01-07 02:02:00,30.8,27.7,30.08,South,172,1.0,1.0,88,0.00,,,0.00,Wunderground v.1.15,2013-01-07 07:02:00,
2013-01-07 02:06:00,30.7,27.6,30.08,South,172,0.0,1.0,88,0.00,,,0.00,Wunderground v.1.15,2013-01-07 07:06:00,
2013-01-07 02:07:00,30.6,27.5,30.08,South,172,1.0,1.0,88,0.00,,,0.00,Wunderground v.1.15,2013-01-07 07:07:00,
2013-01-07 02:11:00,30.7,27.6,30.08,South,172,0.0,1.0,88,0.00,,,0.00,Wunderground v.1.15,2013-01-07 07:11:00,
2013-01-07 02:12:00,30.7,27.6,30.08,South,172,0.0,1.0,88,0.00,,,0.00,Wunderground v.1.15,2013-01-07 07:12:00,
2013-01-07 02:13:00,30.6,27.5,30.08,South,172,2.0,2.0,88,0.00,,,0.00,Wunderground v.1.15,2013-01-07 07:13:00,
2013-01-07 02:17:00,30.5,27.4,30.08,South,172,0.0,2.0,88,0.00,,,0.00,Wunderground v.1.15,2013-01-07 07:17:00,
2013-01-07 02:18:00,30.5,27.4,30.08,South,172,0.0,2.0,88,0.00,,,0.00,Wunderground v.1.15,2013-01-07 07:18:00,
2013-01-07 02:22:00,30.0,26.9,30.08,South,172,0.0,0.0,88,0.00,,,0.00,Wunderground v.1.15,2013-01-07 07:22:00,
2013-01-07 02:23:00,30.0,26.9,30.08,South,172,0.0,0.0,88,0.00,,,0.00,Wunderground v.1.15,2013-01-07 07:23:00,
2013-01-07 02:27:00,29.6,26.5,30.08,South,172,0.0,0.0,88,0.00,,,0.00,Wunderground v.1.15,2013-01-07 07:27:00,
2013-01-07 02:28:00,29.6,26.5,30.08,South,172,0.0,0.0,88,0.00,,,0.00,Wunderground v.1.15,2013-01-07 07:28:00,
2013-01-07 02:32:00,29.3,26.5,30.08,South,172,0.0,0.0,89,0.00,,,0.00,Wunderground v.1.15,2013-01-07 07:32:00,
2013-01-07 02:33:00,29.2,26.4,30.08,South,172,0.0,0.0,89,0.00,,,0.00,Wunderground v.1.15,2013-01-07 07:33:00,
2013-01-07 02:37:00,29.0,26.2,30.08,South,172,0.0,0.0,89,0.00,,,0.00,Wunderground v.1.15,2013-01-07 07:37:00,
2013-01-07 02:38:00,29.0,26.2,30.08,South,172,0.0,0.0,89,0.00,,,0.00,Wunderground v.1.15,2013-01-07 07:38:00,
2013-01-07 02:42:00,28.8,26.2,30.08,South,172,0.0,0.0,90,0.00,,,0.00,Wunderground v.1.15,2013-01-07 07:42:00,
2013-01-07 02:43:00,28.8,26.2,30.08,South,172,0.0,0.0,90,0.00,,,0.00,Wunderground v.1.15,2013-01-07 07:43:00,
2013-01-07 02:47:00,28.8,26.2,30.09,South,172,0.0,0.0,90,0.00,,,0.00,Wunderground v.1.15,2013-01-07 07:47:00,
2013-01-07 02:48:00,28.8,26.2,30.08,South,172,0.0,0.0,90,0.00,,,0.00,Wunderground v.1.15,2013-01-07 07:48:00,
2013-01-07 02:53:00,28.8,26.5,30.09,South,172,0.0,0.0,91,0.00,,,0.00,Wunderground v.1.15,2013-01-07 07:53:00,
2013-01-07 02:54:00,28.8,26.5,30.09,South,172,0.0,0.0,91,0.00,,,0.00,Wunderground v.1.15,2013-01-07 07:54:00,
2013-01-07 02:58:00,28.7,26.4,30.09,South,172,0.0,0.0,91,0.00,,,0.00,Wunderground v.1.15,2013-01-07 07:58:00,
2013-01-07 02:59:00,28.7,26.4,30.09,South,172,0.0,0.0,91,0.00,,,0.00,Wunderground v.1.15,2013-01-07 07:59:00,
2013-01-07 03:03:00,28.7,26.4,30.09,South,172,0.0,0.0,91,0.00,,,0.00,Wunderground v.1.15,2013-01-07 08:03:00,
2013-01-07 03:04:00,28.8,26.5,30.09,South,172,0.0,0.0,91,0.00,,,0.00,Wunderground v.1.15,2013-01-07 08:04:00,
2013-01-07 03:08:00,28.9,26.6,30.09,South,172,0.0,0.0,91,0.00,,,0.00,Wunderground v.1.15,2013-01-07 08:08:00,
2013-01-07 03:09:00,28.9,26.6,30.09,South,172,0.0,0.0,91,0.00,,,0.00,Wunderground v.1.15,2013-01-07 08:09:00,
2013-01-07 03:13:00,29.2,26.9,30.09,South,172,1.0,1.0,91,0.00,,,0.00,Wunderground v.1.15,2013-01-07 08:13:00,
2013-01-07 03:14:00,29.3,27.0,30.09,South,172,0.0,1.0,91,0.00,,,0.00,Wunderground v.1.15,2013-01-07 08:14:00,
2013-01-07 03:18:00,29.5,26.9,30.10,South,172,0.0,1.0,90,0.00,,,0.00,Wunderground v.1.15,2013-01-07 08:18:00,
2013-01-07 03:19:00,29.5,26.9,30.10,South,172,0.0,1.0,90,0.00,,,0.00,Wunderground v.1.15,2013-01-07 08:19:00,
2013-01-07 03:23:00,29.5,26.9,30.09,South,172,0.0,0.0,90,0.00,,,0.00,Wunderground v.1.15,2013-01-07 08:23:00,
2013-01-07 03:24:00,29.5,26.9,30.09,South,172,0.0,0.0,90,0.00,,,0.00,Wunderground v.1.15,2013-01-07 08:24:00,
2013-01-07 03:28:00,29.5,26.9,30.09,South,172,0.0,1.0,90,0.00,,,0.00,Wunderground v.1.15,2013-01-07 08:28:00,
2013-01-07 03:29:00,29.5,26.9,30.09,South,172,0.0,1.0,90,0.00,,,0.00,Wunderground v.1.15,2013-01-07 08:29:00,
2013-01-07 03:30:00,29.5,26.9,30.09,South,172,0.0,1.0,90,0.00,,,0.00,Wunderground v.1.15,2013-01-07 08:30:00,
2013-01-07 03:33:00,29.4,26.8,30.09,South,172,0.0,0.0,90,0.00,,,0.00,Wunderground v.1.15,2013-01-07 08:33:00,
2013-01-07 03:34:00,29.4,26.8,30.09,South,172,0.0,0.0,90,0.00,,,0.00,Wunderground v.1.15,2013-01-07 08:34:00,
2013-01-07 03:35:00,29.4,26.8,30.10,South,172,0.0,0.0,90,0.00,,,0.00,Wunderground v.1.15,2013-01-07 08:35:00,
2013-01-07 03:38:00,29.5,27.2,30.10,South,172,0.0,0.0,91,0.00,,,0.00,Wunderground v.1.15,2013-01-07 08:38:00,
2013-01-07 03:39:00,29.4,27.1,30.10,South,172,1.0,1.0,91,0.00,,,0.00,Wunderground v.1.15,2013-01-07 08:39:00,
2013-01-07 03:40:00,29.5,27.2,30.10,South,172,0.0,0.0,91,0.00,,,0.00,Wunderground v.1.15,2013-01-07 08:40:00,
2013-01-07 03:44:00,29.5,27.2,30.10,South,172,0.0,0.0,91,0.00,,,0.00,Wunderground v.1.15,2013-01-07 08:44:00,
2013-01-07 03:45:00,29.5,27.2,30.10,South,172,0.0,0.0,91,0.00,,,0.00,Wunderground v.1.15,2013-01-07 08:45:00,
2013-01-07 03:49:00,29.6,27.3,30.09,South,172,0.0,1.0,91,0.00,,,0.00,Wunderground v.1.15,2013-01-07 08:49:00,
2013-01-07 03:50:00,29.6,27.3,30.10,South,172,0.0,0.0,91,0.00,,,0.00,Wunderground v.1.15,2013-01-07 08:50:00,
2013-01-07 03:54:00,29.9,27.6,30.10,South,172,0.0,1.0,91,0.00,,,0.00,Wunderground v.1.15,2013-01-07 08:54:00,
2013-01-07 03:55:00,30.0,27.7,30.10,South,172,0.0,1.0,91,0.00,,,0.00,Wunderground v.1.15,2013-01-07 08:55:00,
2013-01-07 03:56:00,30.0,27.7,30.10,South,172,0.0,1.0,91,0.00,,,0.00,Wunderground v.1.15,2013-01-07 08:56:00,
2013-01-07 03:59:00,30.1,27.5,30.11,South,172,0.0,1.0,90,0.00,,,0.00,Wunderground v.1.15,2013-01-07 08:59:00,
2013-01-07 04:00:00,30.2,27.6,30.11,South,172,0.0,0.0,90,0.00,,,0.00,Wunderground v.1.15,2013-01-07 09:00:00,
2013-01-07 04:02:00,30.2,27.6,30.11,South,172,0.0,0.0,90,0.00,,,0.00,Wunderground v.1.15,2013-01-07 09:02:00,
2013-01-07 04:04:00,30.2,27.6,30.11,South,172,0.0,0.0,90,0.00,,,0.00,Wunderground v.1.15,2013-01-07 09:04:00,
2013-01-07 04:05:00,30.2,27.6,30.11,South,172,0.0,0.0,90,0.00,,,0.00,Wunderground v.1.15,2013-01-07 09:05:00,
2013-01-07 04:07:00,30.3,27.7,30.11,South,172,0.0,0.0,90,0.00,,,0.00,Wunderground v.1.15,2013-01-07 09:07:00,
2013-01-07 04:09:00,30.2,27.6,30.11,South,172,0.0,1.0,90,0.00,,,0.00,Wunderground v.1.15,2013-01-07 09:09:00,
2013-01-07 04:10:00,30.2,27.6,30.11,South,172,0.0,0.0,90,0.00,,,0.00,Wunderground v.1.15,2013-01-07 09:10:00,
2013-01-07 04:12:00,30.3,27.4,30.11,South,172,0.0,1.0,89,0.00,,,0.00,Wunderground v.1.15,2013-01-07 09:12:00,
2013-01-07 04:14:00,30.2,27.3,30.11,South,172,0.0,1.0,89,0.00,,,0.00,Wunderground v.1.15,2013-01-07 09:14:00,
2013-01-07 04:15:00,30.2,27.3,30.11,South,172,0.0,1.0,89,0.00,,,0.00,Wunderground v.1.15,2013-01-07 09:15:00,
2013-01-07 04:16:00,30.2,27.3,30.11,South,172,0.0,1.0,89,0.00,,,0.00,Wunderground v.1.15,2013-01-07 09:16:00,
2013-01-07 04:17:00,30.2,27.3,30.11,South,172,0.0,1.0,89,0.00,,,0.00,Wunderground v.1.15,2013-01-07 09:17:00,
2013-01-07 04:19:00,30.1,27.3,30.11,South,172,0.0,1.0,89,0.00,,,0.00,Wunderground v.1.15,2013-01-07 09:19:00,
2013-01-07 04:20:00,30.1,27.5,30.11,South,172,0.0,0.0,90,0.00,,,0.00,Wunderground v.1.15,2013-01-07 09:20:00,
2013-01-07 04:21:00,30.1,27.5,30.11,South,172,0.0,0.0,90,0.00,,,0.00,Wunderground v.1.15,2013-01-07 09:21:00,
2013-01-07 04:22:00,30.1,27.3,30.11,South,172,0.0,0.0,89,0.00,,,0.00,Wunderground v.1.15,2013-01-07 09:22:00,
2013-01-07 04:25:00,30.0,27.2,30.11,South,172,0.0,0.0,89,0.00,,,0.00,Wunderground v.1.15,2013-01-07 09:25:00,
2013-01-07 04:26:00,30.0,27.4,30.11,South,172,0.0,0.0,90,0.00,,,0.00,Wunderground v.1.15,2013-01-07 09:26:00,
2013-01-07 04:27:00,29.9,27.3,30.11,South,172,0.0,0.0,90,0.00,,,0.00,Wunderground v.1.15,2013-01-07 09:27:00,
2013-01-07 04:30:00,29.8,27.2,30.12,South,172,0.0,0.0,90,0.00,,,0.00,Wunderground v.1.15,2013-01-07 09:30:00,
2013-01-07 04:31:00,29.8,27.2,30.11,South,172,0.0,0.0,90,0.00,,,0.00,Wunderground v.1.15,2013-01-07 09:31:00,
2013-01-07 04:32:00,29.8,27.2,30.12,South,172,0.0,0.0,90,0.00,,,0.00,Wunderground v.1.15,2013-01-07 09:32:00,
2013-01-07 04:35:00,29.7,27.1,30.12,South,172,0.0,0.0,90,0.00,,,0.00,Wunderground v.1.15,2013-01-07 09:35:00,
2013-01-07 04:36:00,29.7,27.1,30.12,South,172,0.0,0.0,90,0.00,,,0.00,Wunderground v.1.15,2013-01-07 09:36:00,
2013-01-07 04:37:00,29.7,27.4,30.12,South,172,0.0,0.0,91,0.00,,,0.00,Wunderground v.1.15,2013-01-07 09:37:00,
2013-01-07 04:40:00,29.7,27.1,30.12,South,172,0.0,0.0,90,0.00,,,0.00,Wunderground v.1.15,2013-01-07 09:40:00,
2013-01-07 04:41:00,29.7,27.4,30.12,South,172,0.0,0.0,91,0.00,,,0.00,Wunderground v.1.15,2013-01-07 09:41:00,
2013-01-07 04:42:00,29.7,27.4,30.12,South,172,0.0,0.0,91,0.00,,,0.00,Wunderground v.1.15,2013-01-07 09:42:00,
2013-01-07 04:45:00,29.7,27.4,30.12,South,172,0.0,0.0,91,0.00,,,0.00,Wunderground v.1.15,2013-01-07 09:45:00,
2013-01-07 04:46:00,29.8,27.5,30.12,South,172,0.0,0.0,91,0.00,,,0.00,Wunderground v.1.15,2013-01-07 09:46:00,
2013-01-07 04:48:00,29.8,27.5,30.13,South,172,0.0,0.0,91,0.00,,,0.00,Wunderground v.1.15,2013-01-07 09:48:00,
2013-01-07 04:50:00,29.9,27.6,30.13,South,172,1.0,1.0,91,0.00,,,0.00,Wunderground v.1.15,2013-01-07 09:50:00,
2013-01-07 04:52:00,30.0,27.7,30.13,South,172,0.0,1.0,91,0.00,,,0.00,Wunderground v.1.15,2013-01-07 09:52:00,
2013-01-07 04:53:00,30.0,27.7,30.13,South,172,0.0,1.0,91,0.00,,,0.00,Wunderground v.1.15,2013-01-07 09:53:00,
2013-01-07 04:55:00,30.0,27.7,30.13,South,172,0.0,1.0,91,0.00,,,0.00,Wunderground v.1.15,2013-01-07 09:55:00,
2013-01-07 04:57:00,30.1,27.5,30.13,South,172,0.0,1.0,90,0.00,,,0.00,Wunderground v.1.15,2013-01-07 09:57:00,
2013-01-07 04:58:00,30.1,27.5,30.13,South,172,0.0,1.0,90,0.00,,,0.00,Wunderground v.1.15,2013-01-07 09:58:00,
2013-01-07 05:02:00,30.3,27.7,30.13,South,172,0.0,1.0,90,0.00,,,0.00,Wunderground v.1.15,2013-01-07 10:02:00,
2013-01-07 05:03:00,30.3,27.7,30.13,South,172,0.0,1.0,90,0.00,,,0.00,Wunderground v.1.15,2013-01-07 10:03:00,
2013-01-07 05:07:00,30.4,27.8,30.14,South,172,1.0,2.0,90,0.00,,,0.00,Wunderground v.1.15,2013-01-07 10:07:00,
2013-01-07 05:08:00,30.4,27.8,30.14,South,172,1.0,2.0,90,0.00,,,0.00,Wunderground v.1.15,2013-01-07 10:08:00,
2013-01-07 05:12:00,30.4,27.8,30.14,South,172,0.0,1.0,90,0.00,,,0.00,Wunderground v.1.15,2013-01-07 10:12:00,
2013-01-07 05:13:00,30.4,27.8,30.14,South,172,0.0,1.0,90,0.00,,,0.00,Wunderground v.1.15,2013-01-07 10:13:00,
2013-01-07 05:17:00,30.6,28.0,30.14,South,172,1.0,3.0,90,0.00,,,0.00,Wunderground v.1.15,2013-01-07 10:17:00,
2013-01-07 05:18:00,30.7,27.8,30.14,South,172,2.0,4.0,89,0.00,,,0.00,Wunderground v.1.15,2013-01-07 10:18:00,
2013-01-07 05:22:00,31.1,28.0,30.15,South,172,1.0,2.0,88,0.00,,,0.00,Wunderground v.1.15,2013-01-07 10:22:00,
2013-01-07 05:23:00,31.1,28.0,30.15,South,172,3.0,3.0,88,0.00,,,0.00,Wunderground v.1.15,2013-01-07 10:23:00,
2013-01-07 05:27:00,31.4,28.0,30.15,South,172,2.0,4.0,87,0.00,,,0.00,Wunderground v.1.15,2013-01-07 10:27:00,
2013-01-07 05:28:00,31.5,28.1,30.15,South,172,3.0,4.0,87,0.00,,,0.00,Wunderground v.1.15,2013-01-07 10:28:00,
2013-01-07 05:29:00,31.5,28.1,30.15,South,172,3.0,4.0,87,0.00,,,0.00,Wunderground v.1.15,2013-01-07 10:29:00,
2013-01-07 05:32:00,31.6,27.9,30.15,South,172,0.0,2.0,86,0.00,,,0.00,Wunderground v.1.15,2013-01-07 10:32:00,
2013-01-07 05:33:00,31.6,27.9,30.15,South,172,0.0,2.0,86,0.00,,,0.00,Wunderground v.1.15,2013-01-07 10:33:00,
2013-01-07 05:34:00,31.5,27.8,30.15,South,172,0.0,2.0,86,0.00,,,0.00,Wunderground v.1.15,2013-01-07 10:34:00,
2013-01-07 05:37:00,31.5,27.8,30.16,South,172,0.0,3.0,86,0.00,,,0.00,Wunderground v.1.15,2013-01-07 10:37:00,
2013-01-07 05:38:00,31.5,27.8,30.16,South,172,1.0,3.0,86,0.00,,,0.00,Wunderground v.1.15,2013-01-07 10:38:00,
2013-01-07 05:39:00,31.4,27.7,30.16,South,172,0.0,3.0,86,0.00,,,0.00,Wunderground v.1.15,2013-01-07 10:39:00,
2013-01-07 05:42:00,31.3,27.6,30.16,South,172,0.0,1.0,86,0.00,,,0.00,Wunderground v.1.15,2013-01-07 10:42:00,
2013-01-07 05:43:00,31.3,27.6,30.16,South,172,0.0,1.0,86,0.00,,,0.00,Wunderground v.1.15,2013-01-07 10:43:00,
2013-01-07 05:44:00,31.2,27.5,30.16,South,172,1.0,1.0,86,0.00,,,0.00,Wunderground v.1.15,2013-01-07 10:44:00,
2013-01-07 05:47:00,31.1,27.7,30.17,South,172,1.0,2.0,87,0.00,,,0.00,Wunderground v.1.15,2013-01-07 10:47:00,
2013-01-07 05:48:00,31.0,27.6,30.17,South,172,0.0,2.0,87,0.00,,,0.00,Wunderground v.1.15,2013-01-07 10:48:00,
2013-01-07 05:49:00,31.0,27.6,30.17,South,172,1.0,2.0,87,0.00,,,0.00,Wunderground v.1.15,2013-01-07 10:49:00,
2013-01-07 05:52:00,30.9,27.5,30.17,South,172,0.0,2.0,87,0.00,,,0.00,Wunderground v.1.15,2013-01-07 10:52:00,
2013-01-07 05:53:00,30.9,27.5,30.17,South,172,0.0,2.0,87,0.00,,,0.00,Wunderground v.1.15,2013-01-07 10:53:00,
2013-01-07 05:54:00,30.9,27.5,30.17,South,172,1.0,2.0,87,0.00,,,0.00,Wunderground v.1.15,2013-01-07 10:54:00,
2013-01-07 05:55:00,30.9,27.5,30.17,South,172,0.0,2.0,87,0.00,,,0.00,Wunderground v.1.15,2013-01-07 10:55:00,
2013-01-07 05:57:00,30.8,27.4,30.18,South,172,0.0,2.0,87,0.00,,,0.00,Wunderground v.1.15,2013-01-07 10:57:00,
2013-01-07 05:58:00,30.8,27.4,30.18,South,172,1.0,2.0,87,0.00,,,0.00,Wunderground v.1.15,2013-01-07 10:58:00,
2013-01-07 05:59:00,30.8,27.4,30.18,South,172,0.0,2.0,87,0.00,,,0.00,Wunderground v.1.15,2013-01-07 10:59:00,
2013-01-07 06:00:00,30.8,27.4,30.18,South,172,0.0,0.0,87,0.00,,,0.00,Wunderground v.1.15,2013-01-07 11:00:00,
2013-01-07 06:02:00,30.7,27.3,30.18,South,172,1.0,1.0,87,0.00,,,0.00,Wunderground v.1.15,2013-01-07 11:02:00,
2013-01-07 06:03:00,30.7,27.3,30.18,South,172,1.0,2.0,87,0.00,,,0.00,Wunderground v.1.15,2013-01-07 11:03:00,
2013-01-07 06:04:00,30.7,27.3,30.18,South,172,1.0,2.0,87,0.00,,,0.00,Wunderground v.1.15,2013-01-07 11:04:00,
2013-01-07 06:05:00,30.7,27.3,30.18,South,172,0.0,2.0,87,0.00,,,0.00,Wunderground v.1.15,2013-01-07 11:05:00,
2013-01-07 06:08:00,30.6,27.2,30.18,South,172,0.0,2.0,87,0.00,,,0.00,Wunderground v.1.15,2013-01-07 11:08:00,
2013-01-07 06:09:00,30.6,27.2,30.18,South,172,1.0,2.0,87,0.00,,,0.00,Wunderground v.1.15,2013-01-07 11:09:00,
2013-01-07 06:10:00,30.5,27.1,30.18,South,172,1.0,1.0,87,0.00,,,0.00,Wunderground v.1.15,2013-01-07 11:10:00,
2013-01-07 06:13:00,30.5,27.1,30.19,South,172,1.0,1.0,87,0.00,,,0.00,Wunderground v.1.15,2013-01-07 11:13:00,
2013-01-07 06:14:00,30.5,27.1,30.19,South,172,0.0,1.0,87,0.00,,,0.00,Wunderground v.1.15,2013-01-07 11:14:00,
2013-01-07 06:15:00,30.5,27.1,30.19,South,172,0.0,1.0,87,0.00,,,0.00,Wunderground v.1.15,2013-01-07 11:15:00,
2013-01-07 06:18:00,30.4,27.3,30.19,South,172,0.0,1.0,88,0.00,,,0.00,Wunderground v.1.15,2013-01-07 11:18:00,
2013-01-07 06:19:00,30.4,27.3,30.19,South,172,0.0,1.0,88,0.00,,,0.00,Wunderground v.1.15,2013-01-07 11:19:00,
2013-01-07 06:20:00,30.4,27.3,30.19,South,172,1.0,1.0,88,0.00,,,0.00,Wunderground v.1.15,2013-01-07 11:20:00,
2013-01-07 06:23:00,30.2,27.1,30.19,South,172,0.0,1.0,88,0.00,,,0.00,Wunderground v.1.15,2013-01-07 11:23:00,
2013-01-07 06:25:00,30.1,27.0,30.20,South,172,0.0,1.0,88,0.00,,,0.00,Wunderground v.1.15,2013-01-07 11:25:00,
2013-01-07 06:28:00,30.1,27.0,30.20,South,172,0.0,1.0,88,0.00,,,0.00,Wunderground v.1.15,2013-01-07 11:28:00,
2013-01-07 06:30:00,30.0,26.9,30.20,South,172,0.0,0.0,88,0.00,,,0.00,Wunderground v.1.15,2013-01-07 11:30:00,
2013-01-07 06:33:00,29.9,27.1,30.20,South,172,0.0,0.0,89,0.00,,,0.00,Wunderground v.1.15,2013-01-07 11:33:00,
2013-01-07 06:35:00,29.9,26.8,30.20,South,172,0.0,0.0,88,0.00,,,0.00,Wunderground v.1.15,2013-01-07 11:35:00,
2013-01-07 06:38:00,29.8,27.0,30.20,South,172,2.0,2.0,89,0.00,,,0.00,Wunderground v.1.15,2013-01-07 11:38:00,
2013-01-07 06:40:00,29.7,26.6,30.20,South,172,0.0,1.0,88,0.00,,,0.00,Wunderground v.1.15,2013-01-07 11:40:00,
2013-01-07 06:43:00,29.7,26.6,30.20,South,172,1.0,2.0,88,0.00,,,0.00,Wunderground v.1.15,2013-01-07 11:43:00,
2013-01-07 06:45:00,29.6,26.5,30.20,South,172,0.0,3.0,88,0.00,,,0.00,Wunderground v.1.15,2013-01-07 11:45:00,
2013-01-07 06:48:00,29.5,26.4,30.21,South,172,0.0,3.0,88,0.00,,,0.00,Wunderground v.1.15,2013-01-07 11:48:00,
2013-01-07 06:50:00,29.5,26.4,30.21,South,172,1.0,4.0,88,0.00,,,0.00,Wunderground v.1.15,2013-01-07 11:50:00,
2013-01-07 06:51:00,29.5,26.4,30.21,South,172,2.0,4.0,88,0.00,,,0.00,Wunderground v.1.15,2013-01-07 11:51:00,
2013-01-07 06:53:00,29.4,26.3,30.21,South,172,0.0,4.0,88,0.00,,,0.00,Wunderground v.1.15,2013-01-07 11:53:00,
2013-01-07 06:55:00,29.4,26.3,30.21,South,172,3.0,4.0,88,0.00,,,0.00,Wunderground v.1.15,2013-01-07 11:55:00,
2013-01-07 06:56:00,29.4,26.3,30.21,South,172,2.0,4.0,88,0.00,,,0.00,Wunderground v.1.15,2013-01-07 11:56:00,
2013-01-07 06:58:00,29.3,26.2,30.21,South,172,3.0,4.0,88,0.00,,,0.00,Wunderground v.1.15,2013-01-07 11:58:00,
2013-01-07 07:00:00,29.3,26.2,30.21,South,172,0.0,3.0,88,0.00,,,0.00,Wunderground v.1.15,2013-01-07 12:00:00,
2013-01-07 07:02:00,29.3,26.2,30.22,South,172,0.0,3.0,88,0.00,,,0.00,Wunderground v.1.15,2013-01-07 12:02:00,
2013-01-07 07:03:00,29.2,26.1,30.22,South,172,3.0,3.0,88,0.00,,,0.00,Wunderground v.1.15,2013-01-07 12:03:00,
2013-01-07 07:05:00,29.2,26.1,30.22,South,172,1.0,3.0,88,0.00,,,0.00,Wunderground v.1.15,2013-01-07 12:05:00,
2013-01-07 07:07:00,29.1,25.7,30.22,South,172,1.0,3.0,87,0.00,,,0.00,Wunderground v.1.15,2013-01-07 12:07:00,
2013-01-07 07:08:00,29.1,25.7,30.22,South,172,1.0,3.0,87,0.00,,,0.00,Wunderground v.1.15,2013-01-07 12:08:00,
2013-01-07 07:09:00,29.0,25.6,30.22,South,172,2.0,4.0,87,0.00,,,0.00,Wunderground v.1.15,2013-01-07 12:09:00,
2013-01-07 07:10:00,28.9,25.2,30.22,South,172,0.0,2.0,86,0.00,,,0.00,Wunderground v.1.15,2013-01-07 12:10:00,
2013-01-07 07:12:00,28.8,25.1,30.22,South,172,0.0,3.0,86,0.00,,,0.00,Wunderground v.1.15,2013-01-07 12:12:00,
2013-01-07 07:13:00,28.8,25.1,30.22,South,172,1.0,3.0,86,0.00,,,0.00,Wunderground v.1.15,2013-01-07 12:13:00,
2013-01-07 07:14:00,28.7,25.0,30.22,South,172,1.0,3.0,86,0.00,,,0.00,Wunderground v.1.15,2013-01-07 12:14:00,
2013-01-07 07:16:00,28.6,24.9,30.23,South,172,0.0,3.0,86,0.00,,,0.00,Wunderground v.1.15,2013-01-07 12:16:00,
2013-01-07 07:17:00,28.5,24.8,30.23,South,172,1.0,3.0,86,0.00,,,0.00,Wunderground v.1.15,2013-01-07 12:17:00,
2013-01-07 07:18:00,28.5,24.8,30.23,South,172,0.0,3.0,86,0.00,,,0.00,Wunderground v.1.15,2013-01-07 12:18:00,
2013-01-07 07:19:00,28.4,24.7,30.23,South,172,0.0,3.0,86,0.00,,,0.00,Wunderground v.1.15,2013-01-07 12:19:00,
2013-01-07 07:21:00,28.3,24.6,30.23,South,172,1.0,1.0,86,0.00,,,0.00,Wunderground v.1.15,2013-01-07 12:21:00,
2013-01-07 07:23:00,28.3,24.6,30.23,South,172,1.0,2.0,86,0.00,,,0.00,Wunderground v.1.15,2013-01-07 12:23:00,
2013-01-07 07:25:00,28.2,24.6,30.23,South,172,0.0,2.0,86,0.00,,,0.00,Wunderground v.1.15,2013-01-07 12:25:00,
2013-01-07 07:26:00,28.2,24.3,30.23,South,172,2.0,2.0,85,0.00,,,0.00,Wunderground v.1.15,2013-01-07 12:26:00,
2013-01-07 07:28:00,28.2,24.3,30.23,South,172,0.0,2.0,85,0.00,,,0.00,Wunderground v.1.15,2013-01-07 12:28:00,
2013-01-07 07:30:00,28.2,24.3,30.23,South,172,0.0,0.0,85,0.00,,,0.00,Wunderground v.1.15,2013-01-07 12:30:00,
2013-01-07 07:31:00,28.2,24.3,30.23,South,172,0.0,0.0,85,0.00,,,0.00,Wunderground v.1.15,2013-01-07 12:31:00,
2013-01-07 07:33:00,28.1,24.2,30.23,South,172,0.0,0.0,85,0.00,,,0.00,Wunderground v.1.15,2013-01-07 12:33:00,
2013-01-07 07:35:00,28.1,24.2,30.23,South,172,0.0,1.0,85,0.00,,,0.00,Wunderground v.1.15,2013-01-07 12:35:00,
2013-01-07 07:36:00,28.1,24.2,30.23,South,172,0.0,1.0,85,0.00,,,0.00,Wunderground v.1.15,2013-01-07 12:36:00,
2013-01-07 07:38:00,28.1,24.2,30.24,South,172,0.0,1.0,85,0.00,,,0.00,Wunderground v.1.15,2013-01-07 12:38:00,
2013-01-07 07:40:00,28.0,24.1,30.24,South,172,0.0,0.0,85,0.00,,,0.00,Wunderground v.1.15,2013-01-07 12:40:00,
2013-01-07 07:41:00,28.0,24.1,30.24,South,172,0.0,1.0,85,0.00,,,0.00,Wunderground v.1.15,2013-01-07 12:41:00,
2013-01-07 07:43:00,28.0,24.1,30.24,South,172,1.0,1.0,85,0.00,,,0.00,Wunderground v.1.15,2013-01-07 12:43:00,
2013-01-07 07:45:00,28.1,24.2,30.24,South,172,1.0,2.0,85,0.00,,,0.00,Wunderground v.1.15,2013-01-07 12:45:00,
2013-01-07 07:46:00,28.1,24.2,30.24,South,172,0.0,2.0,85,0.00,,,0.00,Wunderground v.1.15,2013-01-07 12:46:00,
2013-01-07 07:48:00,28.1,24.2,30.25,South,172,0.0,2.0,85,0.00,,,0.00,Wunderground v.1.15,2013-01-07 12:48:00,
2013-01-07 07:50:00,28.1,24.2,30.25,South,172,0.0,0.0,85,0.00,,,0.00,Wunderground v.1.15,2013-01-07 12:50:00,
2013-01-07 07:52:00,28.2,24.3,30.25,South,172,0.0,2.0,85,0.00,,,0.00,Wunderground v.1.15,2013-01-07 12:52:00,
2013-01-07 07:53:00,28.1,24.2,30.25,South,172,0.0,2.0,85,0.00,,,0.00,Wunderground v.1.15,2013-01-07 12:53:00,
2013-01-07 07:55:00,28.2,24.0,30.25,South,172,0.0,2.0,84,0.00,,,0.00,Wunderground v.1.15,2013-01-07 12:55:00,
2013-01-07 07:57:00,28.2,24.0,30.26,South,172,0.0,2.0,84,0.00,,,0.00,Wunderground v.1.15,2013-01-07 12:57:00,
2013-01-07 07:58:00,28.1,23.6,30.26,South,172,1.0,2.0,83,0.00,,,0.00,Wunderground v.1.15,2013-01-07 12:58:00,
2013-01-07 07:59:00,28.1,23.6,30.26,South,172,0.0,2.0,83,0.00,,,0.00,Wunderground v.1.15,2013-01-07 12:59:00,
2013-01-07 08:00:00,28.1,23.6,30.26,South,172,0.0,1.0,83,0.00,,,0.00,Wunderground v.1.15,2013-01-07 13:00:00,
2013-01-07 08:02:00,28.1,23.6,30.26,South,172,0.0,1.0,83,0.00,,,0.00,Wunderground v.1.15,2013-01-07 13:02:00,
2013-01-07 08:03:00,28.0,23.5,30.26,South,172,0.0,1.0,83,0.00,,,0.00,Wunderground v.1.15,2013-01-07 13:03:00,
2013-01-07 08:04:00,28.0,23.5,30.26,South,172,0.0,1.0,83,0.00,,,0.00,Wunderground v.1.15,2013-01-07 13:04:00,
2013-01-07 08:06:00,28.0,23.5,30.26,South,172,0.0,1.0,83,0.00,,,0.00,Wunderground v.1.15,2013-01-07 13:06:00,
2013-01-07 08:07:00,28.1,23.3,30.26,South,172,0.0,2.0,82,0.00,,,0.00,Wunderground v.1.15,2013-01-07 13:07:00,
2013-01-07 08:09:00,28.1,23.3,30.27,South,172,1.0,2.0,82,0.00,,,0.00,Wunderground v.1.15,2013-01-07 13:09:00,
2013-01-07 08:11:00,28.0,23.2,30.27,South,172,2.0,2.0,82,0.00,,,0.00,Wunderground v.1.15,2013-01-07 13:11:00,
2013-01-07 08:12:00,28.0,23.2,30.27,South,172,1.0,2.0,82,0.00,,,0.00,Wunderground v.1.15,2013-01-07 13:12:00,
2013-01-07 08:14:00,28.0,22.9,30.27,South,172,1.0,3.0,81,0.00,,,0.00,Wunderground v.1.15,2013-01-07 13:14:00,
2013-01-07 08:16:00,27.8,22.7,30.28,South,172,2.0,3.0,81,0.00,,,0.00,Wunderground v.1.15,2013-01-07 13:16:00,
2013-01-07 08:17:00,27.8,22.7,30.28,South,172,0.0,3.0,81,0.00,,,0.00,Wunderground v.1.15,2013-01-07 13:17:00,
2013-01-07 08:19:00,27.8,22.4,30.28,South,172,0.0,4.0,80,0.00,,,0.00,Wunderground v.1.15,2013-01-07 13:19:00,
2013-01-07 08:21:00,27.8,22.4,30.28,South,172,0.0,2.0,80,0.00,,,0.00,Wunderground v.1.15,2013-01-07 13:21:00,
2013-01-07 08:22:00,27.8,22.4,30.28,South,172,1.0,2.0,80,0.00,,,0.00,Wunderground v.1.15,2013-01-07 13:22:00,
2013-01-07 08:24:00,28.0,22.6,30.28,South,172,0.0,2.0,80,0.00,,,0.00,Wunderground v.1.15,2013-01-07 13:24:00,
2013-01-07 08:26:00,28.0,22.6,30.29,South,172,1.0,2.0,80,0.00,,,0.00,Wunderground v.1.15,2013-01-07 13:26:00,
2013-01-07 08:27:00,28.0,22.6,30.28,South,172,3.0,3.0,80,0.00,,,0.00,Wunderground v.1.15,2013-01-07 13:27:00,
2013-01-07 08:29:00,28.0,22.3,30.29,South,172,1.0,4.0,79,0.00,,,0.00,Wunderground v.1.15,2013-01-07 13:29:00,
2013-01-07 08:31:00,27.9,22.2,30.29,South,172,1.0,2.0,79,0.00,,,0.00,Wunderground v.1.15,2013-01-07 13:31:00,
2013-01-07 08:33:00,27.8,22.1,30.29,South,172,1.0,3.0,79,0.00,,,0.00,Wunderground v.1.15,2013-01-07 13:33:00,
2013-01-07 08:34:00,27.8,22.1,30.29,South,172,1.0,3.0,79,0.00,,,0.00,Wunderground v.1.15,2013-01-07 13:34:00,
2013-01-07 08:36:00,27.7,22.0,30.30,South,172,3.0,4.0,79,0.00,,,0.00,Wunderground v.1.15,2013-01-07 13:36:00,
2013-01-07 08:38:00,27.6,21.6,30.30,South,172,2.0,4.0,78,0.00,,,0.00,Wunderground v.1.15,2013-01-07 13:38:00,
2013-01-07 08:39:00,27.5,21.5,30.30,South,172,1.0,4.0,78,0.00,,,0.00,Wunderground v.1.15,2013-01-07 13:39:00,
2013-01-07 08:40:00,27.5,21.8,30.30,South,172,1.0,1.0,79,0.00,,,0.00,Wunderground v.1.15,2013-01-07 13:40:00,
2013-01-07 08:41:00,27.5,21.8,30.30,South,172,0.0,3.0,79,0.00,,,0.00,Wunderground v.1.15,2013-01-07 13:41:00,
2013-01-07 08:43:00,27.6,21.9,30.30,South,172,1.0,4.0,79,0.00,,,0.00,Wunderground v.1.15,2013-01-07 13:43:00,
2013-01-07 08:45:00,27.7,22.0,30.31,South,172,1.0,4.0,79,0.00,,,0.00,Wunderground v.1.15,2013-01-07 13:45:00,
2013-01-07 08:46:00,27.8,22.1,30.31,South,172,1.0,4.0,79,0.00,,,0.00,Wunderground v.1.15,2013-01-07 13:46:00,
2013-01-07 08:48:00,27.8,21.8,30.31,South,172,0.0,4.0,78,0.00,,,0.00,Wunderground v.1.15,2013-01-07 13:48:00,
2013-01-07 08:50:00,28.0,22.0,30.31,South,172,2.0,3.0,78,0.00,,,0.00,Wunderground v.1.15,2013-01-07 13:50:00,
2013-01-07 08:51:00,28.0,21.7,30.31,South,172,0.0,3.0,77,0.00,,,0.00,Wunderground v.1.15,2013-01-07 13:51:00,
2013-01-07 08:53:00,28.1,21.8,30.31,South,172,0.0,3.0,77,0.00,,,0.00,Wunderground v.1.15,2013-01-07 13:53:00,
2013-01-07 08:55:00,28.1,22.1,30.31,South,172,0.0,3.0,78,0.00,,,0.00,Wunderground v.1.15,2013-01-07 13:55:00,
2013-01-07 08:57:00,28.2,21.9,30.32,South,172,1.0,3.0,77,0.00,,,0.00,Wunderground v.1.15,2013-01-07 13:57:00,
2013-01-07 08:58:00,28.2,21.9,30.32,South,172,1.0,3.0,77,0.00,,,0.00,Wunderground v.1.15,2013-01-07 13:58:00,
2013-01-07 09:00:00,28.1,21.5,30.32,South,172,5.0,5.0,76,0.00,,,0.00,Wunderground v.1.15,2013-01-07 14:00:00,
2013-01-07 09:02:00,28.0,21.4,30.32,South,172,1.0,5.0,76,0.00,,,0.00,Wunderground v.1.15,2013-01-07 14:02:00,
2013-01-07 09:04:00,27.9,21.6,30.32,South,172,3.0,5.0,77,0.00,,,0.00,Wunderground v.1.15,2013-01-07 14:04:00,
2013-01-07 09:05:00,27.7,21.1,30.32,South,172,0.0,5.0,76,0.00,,,0.00,Wunderground v.1.15,2013-01-07 14:05:00,
2013-01-07 09:07:00,27.6,21.0,30.33,South,172,2.0,5.0,76,0.00,,,0.00,Wunderground v.1.15,2013-01-07 14:07:00,
2013-01-07 09:09:00,27.5,20.9,30.33,South,172,2.0,5.0,76,0.00,,,0.00,Wunderground v.1.15,2013-01-07 14:09:00,
2013-01-07 09:10:00,27.4,20.8,30.33,South,172,1.0,4.0,76,0.00,,,0.00,Wunderground v.1.15,2013-01-07 14:10:00,
2013-01-07 09:12:00,27.4,20.8,30.33,South,172,2.0,4.0,76,0.00,,,0.00,Wunderground v.1.15,2013-01-07 14:12:00,
2013-01-07 09:14:00,27.3,21.0,30.33,South,172,2.0,4.0,77,0.00,,,0.00,Wunderground v.1.15,2013-01-07 14:14:00,
2013-01-07 09:15:00,27.3,21.0,30.33,South,172,0.0,4.0,77,0.00,,,0.00,Wunderground v.1.15,2013-01-07 14:15:00,
2013-01-07 09:17:00,27.4,21.1,30.34,South,172,2.0,4.0,77,0.00,,,0.00,Wunderground v.1.15,2013-01-07 14:17:00,
2013-01-07 09:19:00,27.4,20.8,30.34,South,172,0.0,4.0,76,0.00,,,0.00,Wunderground v.1.15,2013-01-07 14:19:00,
2013-01-07 09:21:00,27.4,20.8,30.34,South,172,0.0,1.0,76,0.00,,,0.00,Wunderground v.1.15,2013-01-07 14:21:00,
2013-01-07 09:22:00,27.5,21.2,30.34,South,172,5.0,5.0,77,0.00,,,0.00,Wunderground v.1.15,2013-01-07 14:22:00,
2013-01-07 09:24:00,27.4,20.8,30.34,South,172,2.0,5.0,76,0.00,,,0.00,Wunderground v.1.15,2013-01-07 14:24:00,
2013-01-07 09:26:00,27.4,20.5,30.34,South,172,3.0,5.0,75,0.00,,,0.00,Wunderground v.1.15,2013-01-07 14:26:00,
2013-01-07 09:27:00,27.3,20.4,30.34,South,172,0.0,5.0,75,0.00,,,0.00,Wunderground v.1.15,2013-01-07 14:27:00,
2013-01-07 09:29:00,27.2,20.3,30.34,South,172,0.0,5.0,75,0.00,,,0.00,Wunderground v.1.15,2013-01-07 14:29:00,
2013-01-07 09:31:00,27.2,20.3,30.35,South,172,1.0,2.0,75,0.00,,,0.00,Wunderground v.1.15,2013-01-07 14:31:00,
2013-01-07 09:32:00,27.3,20.4,30.35,South,172,1.0,3.0,75,0.00,,,0.00,Wunderground v.1.15,2013-01-07 14:32:00,
2013-01-07 09:34:00,27.2,20.0,30.34,South,172,1.0,3.0,74,0.00,,,0.00,Wunderground v.1.15,2013-01-07 14:34:00,
2013-01-07 09:36:00,27.2,20.3,30.35,South,172,1.0,3.0,75,0.00,,,0.00,Wunderground v.1.15,2013-01-07 14:36:00,
2013-01-07 09:37:00,27.1,19.9,30.35,South,172,1.0,3.0,74,0.00,,,0.00,Wunderground v.1.15,2013-01-07 14:37:00,
2013-01-07 09:40:00,27.1,20.2,30.35,South,172,1.0,1.0,75,0.00,,,0.00,Wunderground v.1.15,2013-01-07 14:40:00,
2013-01-07 09:41:00,27.2,20.3,30.35,South,172,1.0,3.0,75,0.00,,,0.00,Wunderground v.1.15,2013-01-07 14:41:00,
2013-01-07 09:42:00,27.2,20.3,30.35,South,172,0.0,3.0,75,0.00,,,0.00,Wunderground v.1.15,2013-01-07 14:42:00,
2013-01-07 09:43:00,27.2,20.3,30.35,South,172,1.0,3.0,75,0.00,,,0.00,Wunderground v.1.15,2013-01-07 14:43:00,
2013-01-07 09:45:00,27.1,19.9,30.35,South,172,1.0,5.0,74,0.00,,,0.00,Wunderground v.1.15,2013-01-07 14:45:00,
2013-01-07 09:46:00,27.1,20.2,30.35,South,172,2.0,5.0,75,0.00,,,0.00,Wunderground v.1.15,2013-01-07 14:46:00,
2013-01-07 09:47:00,26.9,19.7,30.35,South,172,2.0,8.0,74,0.00,,,0.00,Wunderground v.1.15,2013-01-07 14:47:00,
2013-01-07 09:48:00,26.9,19.7,30.35,South,172,0.0,8.0,74,0.00,,,0.00,Wunderground v.1.15,2013-01-07 14:48:00,
2013-01-07 09:50:00,26.7,19.8,30.36,South,172,2.0,3.0,75,0.00,,,0.00,Wunderground v.1.15,2013-01-07 14:50:00,
2013-01-07 09:51:00,26.7,19.8,30.36,South,172,2.0,3.0,75,0.00,,,0.00,Wunderground v.1.15,2013-01-07 14:51:00,
2013-01-07 09:53:00,26.6,19.7,30.35,South,172,3.0,4.0,75,0.00,,,0.00,Wunderground v.1.15,2013-01-07 14:53:00,
2013-01-07 09:55:00,26.4,19.2,30.36,South,172,1.0,5.0,74,0.00,,,0.00,Wunderground v.1.15,2013-01-07 14:55:00,
2013-01-07 09:56:00,26.3,19.1,30.36,South,172,2.0,5.0,74,0.00,,,0.00,Wunderground v.1.15,2013-01-07 14:56:00,
2013-01-07 09:58:00,26.2,19.0,30.36,South,172,2.0,5.0,74,0.00,,,0.00,Wunderground v.1.15,2013-01-07 14:58:00,
2013-01-07 10:00:00,26.1,19.3,30.36,South,172,1.0,4.0,75,0.00,,,0.00,Wunderground v.1.15,2013-01-07 15:00:00,
2013-01-07 10:02:00,26.0,19.2,30.36,South,172,5.0,5.0,75,0.00,,,0.00,Wunderground v.1.15,2013-01-07 15:02:00,
2013-01-07 10:03:00,26.0,18.8,30.36,South,172,1.0,6.0,74,0.00,,,0.00,Wunderground v.1.15,2013-01-07 15:03:00,
2013-01-07 10:05:00,26.0,18.8,30.36,South,172,1.0,6.0,74,0.00,,,0.00,Wunderground v.1.15,2013-01-07 15:05:00,
2013-01-07 10:07:00,25.9,18.7,30.36,South,172,0.0,6.0,74,0.00,,,0.00,Wunderground v.1.15,2013-01-07 15:07:00,
2013-01-07 10:08:00,25.9,19.1,30.36,South,172,1.0,6.0,75,0.00,,,0.00,Wunderground v.1.15,2013-01-07 15:08:00,
2013-01-07 10:09:00,26.0,19.2,30.36,South,172,2.0,6.0,75,0.00,,,0.00,Wunderground v.1.15,2013-01-07 15:09:00,
2013-01-07 10:10:00,26.1,19.3,30.36,South,172,2.0,3.0,75,0.00,,,0.00,Wunderground v.1.15,2013-01-07 15:10:00,
2013-01-07 10:12:00,26.1,19.3,30.36,South,172,0.0,3.0,75,0.00,,,0.00,Wunderground v.1.15,2013-01-07 15:12:00,
2013-01-07 10:13:00,26.2,19.4,30.36,South,172,1.0,3.0,75,0.00,,,0.00,Wunderground v.1.15,2013-01-07 15:13:00,
2013-01-07 10:14:00,26.3,19.5,30.36,South,172,3.0,5.0,75,0.00,,,0.00,Wunderground v.1.15,2013-01-07 15:14:00,
2013-01-07 10:15:00,26.3,18.8,30.36,South,172,2.0,5.0,73,0.00,,,0.00,Wunderground v.1.15,2013-01-07 15:15:00,
2013-01-07 10:17:00,26.1,18.6,30.36,South,172,2.0,5.0,73,0.00,,,0.00,Wunderground v.1.15,2013-01-07 15:17:00,
2013-01-07 10:19:00,26.2,18.7,30.36,South,172,2.0,5.0,73,0.00,,,0.00,Wunderground v.1.15,2013-01-07 15:19:00,
2013-01-07 10:20:00,26.2,19.0,30.36,South,172,3.0,8.0,74,0.00,,,0.00,Wunderground v.1.15,2013-01-07 15:20:00,
2013-01-07 10:23:00,26.1,18.6,30.36,South,172,3.0,8.0,73,0.00,,,0.00,Wunderground v.1.15,2013-01-07 15:23:00,
2013-01-07 10:24:00,25.9,18.4,30.37,South,172,1.0,8.0,73,0.00,,,0.00,Wunderground v.1.15,2013-01-07 15:24:00,
2013-01-07 10:25:00,25.9,18.4,30.37,South,172,3.0,8.0,73,0.00,,,0.00,Wunderground v.1.15,2013-01-07 15:25:00,
2013-01-07 10:28:00,25.8,18.3,30.37,South,172,1.0,8.0,73,0.00,,,0.00,Wunderground v.1.15,2013-01-07 15:28:00,
2013-01-07 10:29:00,25.8,18.3,30.37,South,172,2.0,8.0,73,0.00,,,0.00,Wunderground v.1.15,2013-01-07 15:29:00,
2013-01-07 10:31:00,25.9,18.4,30.37,South,172,3.0,4.0,73,0.00,,,0.00,Wunderground v.1.15,2013-01-07 15:31:00,
2013-01-07 10:33:00,25.9,18.4,30.37,South,172,2.0,4.0,73,0.00,,,0.00,Wunderground v.1.15,2013-01-07 15:33:00,
2013-01-07 10:34:00,25.9,18.4,30.37,South,172,0.0,4.0,73,0.00,,,0.00,Wunderground v.1.15,2013-01-07 15:34:00,
2013-01-07 10:35:00,25.9,18.4,30.37,South,172,4.0,4.0,73,0.00,,,0.00,Wunderground v.1.15,2013-01-07 15:35:00,
2013-01-07 10:36:00,26.0,18.5,30.37,South,172,2.0,5.0,73,0.00,,,0.00,Wunderground v.1.15,2013-01-07 15:36:00,
2013-01-07 10:38:00,25.9,18.4,30.37,South,172,2.0,5.0,73,0.00,,,0.00,Wunderground v.1.15,2013-01-07 15:38:00,
2013-01-07 10:39:00,25.9,18.1,30.37,South,172,1.0,5.0,72,0.00,,,0.00,Wunderground v.1.15,2013-01-07 15:39:00,
2013-01-07 10:40:00,25.9,18.1,30.37,South,172,1.0,2.0,72,0.00,,,0.00,Wunderground v.1.15,2013-01-07 15:40:00,
2013-01-07 10:41:00,25.9,18.4,30.37,South,172,0.0,2.0,73,0.00,,,0.00,Wunderground v.1.15,2013-01-07 15:41:00,
2013-01-07 10:43:00,25.9,18.1,30.37,South,172,4.0,7.0,72,0.00,,,0.00,Wunderground v.1.15,2013-01-07 15:43:00,
2013-01-07 10:44:00,25.9,18.1,30.37,South,172,2.0,7.0,72,0.00,,,0.00,Wunderground v.1.15,2013-01-07 15:44:00,
2013-01-07 10:45:00,25.9,18.1,30.37,South,172,1.0,7.0,72,0.00,,,0.00,Wunderground v.1.15,2013-01-07 15:45:00,
2013-01-07 10:46:00,25.8,18.0,30.37,South,172,0.0,7.0,72,0.00,,,0.00,Wunderground v.1.15,2013-01-07 15:46:00,
2013-01-07 10:48:00,25.8,18.0,30.37,South,172,2.0,7.0,72,0.00,,,0.00,Wunderground v.1.15,2013-01-07 15:48:00,
2013-01-07 10:49:00,25.8,18.0,30.37,South,172,1.0,7.0,72,0.00,,,0.00,Wunderground v.1.15,2013-01-07 15:49:00,
2013-01-07 10:50:00,25.8,18.0,30.37,South,172,2.0,2.0,72,0.00,,,0.00,Wunderground v.1.15,2013-01-07 15:50:00,
2013-01-07 10:51:00,25.9,18.1,30.38,South,172,2.0,3.0,72,0.00,,,0.00,Wunderground v.1.15,2013-01-07 15:51:00,
2013-01-07 10:54:00,25.8,18.0,30.37,South,172,3.0,3.0,72,0.00,,,0.00,Wunderground v.1.15,2013-01-07 15:54:00,
2013-01-07 10:55:00,25.7,17.9,30.38,South,172,1.0,3.0,72,0.00,,,0.00,Wunderground v.1.15,2013-01-07 15:55:00,
2013-01-07 10:57:00,25.7,17.9,30.38,South,172,0.0,3.0,72,0.00,,,0.00,Wunderground v.1.15,2013-01-07 15:57:00,
2013-01-07 10:59:00,25.8,18.0,30.38,South,172,4.0,5.0,72,0.00,,,0.00,Wunderground v.1.15,2013-01-07 15:59:00,
2013-01-07 11:01:00,25.8,17.7,30.38,South,172,0.0,2.0,71,0.00,,,0.00,Wunderground v.1.15,2013-01-07 16:01:00,
2013-01-07 11:02:00,25.8,17.7,30.38,South,172,2.0,2.0,71,0.00,,,0.00,Wunderground v.1.15,2013-01-07 16:02:00,
2013-01-07 11:04:00,25.8,17.7,30.38,South,172,4.0,4.0,71,0.00,,,0.00,Wunderground v.1.15,2013-01-07 16:04:00,
2013-01-07 11:06:00,25.7,17.6,30.37,South,172,0.0,6.0,71,0.00,,,0.00,Wunderground v.1.15,2013-01-07 16:06:00,
2013-01-07 11:07:00,25.7,17.6,30.37,South,172,0.0,6.0,71,0.00,,,0.00,Wunderground v.1.15,2013-01-07 16:07:00,
2013-01-07 11:09:00,25.9,18.1,30.37,South,172,1.0,6.0,72,0.00,,,0.00,Wunderground v.1.15,2013-01-07 16:09:00,
2013-01-07 11:12:00,26.1,18.0,30.37,South,172,3.0,5.0,71,0.00,,,0.00,Wunderground v.1.15,2013-01-07 16:12:00,
2013-01-07 11:15:00,26.1,18.0,30.37,South,172,2.0,5.0,71,0.00,,,0.00,Wunderground v.1.15,2013-01-07 16:15:00,
2013-01-07 11:17:00,26.1,17.6,30.37,South,172,1.0,5.0,70,0.00,,,0.00,Wunderground v.1.15,2013-01-07 16:17:00,
2013-01-07 11:20:00,26.3,17.8,30.38,South,172,1.0,5.0,70,0.00,,,0.00,Wunderground v.1.15,2013-01-07 16:20:00,
2013-01-07 11:22:00,26.3,17.8,30.38,South,172,1.0,4.0,70,0.00,,,0.00,Wunderground v.1.15,2013-01-07 16:22:00,
2013-01-07 11:25:00,26.5,18.0,30.38,South,172,2.0,4.0,70,0.00,,,0.00,Wunderground v.1.15,2013-01-07 16:25:00,
2013-01-07 11:27:00,26.5,17.7,30.37,South,172,3.0,4.0,69,0.00,,,0.00,Wunderground v.1.15,2013-01-07 16:27:00,
2013-01-07 11:30:00,26.5,17.4,30.37,South,172,0.0,4.0,68,0.00,,,0.00,Wunderground v.1.15,2013-01-07 16:30:00,
2013-01-07 11:32:00,26.7,17.9,30.37,South,172,1.0,2.0,69,0.00,,,0.00,Wunderground v.1.15,2013-01-07 16:32:00,
2013-01-07 11:35:00,27.1,18.3,30.37,South,172,3.0,3.0,69,0.00,,,0.00,Wunderground v.1.15,2013-01-07 16:35:00,
2013-01-07 11:37:00,27.3,18.1,30.37,South,172,1.0,3.0,68,0.00,,,0.00,Wunderground v.1.15,2013-01-07 16:37:00,
2013-01-07 11:40:00,27.5,18.3,30.38,South,172,0.0,3.0,68,0.00,,,0.00,Wunderground v.1.15,2013-01-07 16:40:00,
2013-01-07 11:42:00,27.8,18.3,30.38,South,172,0.0,1.0,67,0.00,,,0.00,Wunderground v.1.15,2013-01-07 16:42:00,
2013-01-07 11:43:00,27.8,18.3,30.38,South,172,1.0,1.0,67,0.00,,,0.00,Wunderground v.1.15,2013-01-07 16:43:00,
2013-01-07 11:45:00,27.9,18.4,30.38,South,172,1.0,3.0,67,0.00,,,0.00,Wunderground v.1.15,2013-01-07 16:45:00,
2013-01-07 11:48:00,28.0,18.1,30.37,South,172,0.0,3.0,66,0.00,,,0.00,Wunderground v.1.15,2013-01-07 16:48:00,
2013-01-07 11:50:00,28.0,17.7,30.38,South,172,4.0,4.0,65,0.00,,,0.00,Wunderground v.1.15,2013-01-07 16:50:00,
2013-01-07 11:53:00,28.0,18.1,30.38,South,172,0.0,2.0,66,0.00,,,0.00,Wunderground v.1.15,2013-01-07 16:53:00,
2013-01-07 11:55:00,28.3,18.0,30.37,South,172,1.0,3.0,65,0.00,,,0.00,Wunderground v.1.15,2013-01-07 16:55:00,
2013-01-07 11:58:00,28.4,17.8,30.37,South,172,1.0,3.0,64,0.00,,,0.00,Wunderground v.1.15,2013-01-07 16:58:00,
2013-01-07 12:01:00,28.5,18.2,30.37,South,172,2.0,2.0,65,0.00,,,0.00,Wunderground v.1.15,2013-01-07 17:01:00,
2013-01-07 12:03:00,28.6,18.0,30.38,South,172,2.0,3.0,64,0.00,,,0.00,Wunderground v.1.15,2013-01-07 17:03:00,
2013-01-07 12:07:00,28.8,18.1,30.38,South,172,1.0,3.0,64,0.00,,,0.00,Wunderground v.1.15,2013-01-07 17:07:00,
2013-01-07 12:08:00,28.9,18.2,30.38,South,172,1.0,3.0,64,0.00,,,0.00,Wunderground v.1.15,2013-01-07 17:08:00,
2013-01-07 12:09:00,29.0,18.3,30.38,South,172,0.0,3.0,64,0.00,,,0.00,Wunderground v.1.15,2013-01-07 17:09:00,
2013-01-07 12:12:00,29.2,18.2,30.38,South,172,2.0,2.0,63,0.00,,,0.00,Wunderground v.1.15,2013-01-07 17:12:00,
2013-01-07 12:13:00,29.3,17.9,30.38,South,172,2.0,3.0,62,0.00,,,0.00,Wunderground v.1.15,2013-01-07 17:13:00,
2013-01-07 12:14:00,29.3,17.9,30.38,South,172,1.0,3.0,62,0.00,,,0.00,Wunderground v.1.15,2013-01-07 17:14:00,
2013-01-07 12:17:00,29.0,18.0,30.38,South,172,1.0,4.0,63,0.00,,,0.00,Wunderground v.1.15,2013-01-07 17:17:00,
2013-01-07 12:18:00,29.1,18.1,30.38,South,172,1.0,4.0,63,0.00,,,0.00,Wunderground v.1.15,2013-01-07 17:18:00,
2013-01-07 12:19:00,29.2,18.2,30.38,South,172,1.0,4.0,63,0.00,,,0.00,Wunderground v.1.15,2013-01-07 17:19:00,
2013-01-07 12:22:00,29.3,17.9,30.38,South,172,5.0,5.0,62,0.00,,,0.00,Wunderground v.1.15,2013-01-07 17:22:00,
2013-01-07 12:23:00,29.3,17.5,30.38,South,172,2.0,5.0,61,0.00,,,0.00,Wunderground v.1.15,2013-01-07 17:23:00,
2013-01-07 12:24:00,29.3,17.5,30.38,South,172,1.0,5.0,61,0.00,,,0.00,Wunderground v.1.15,2013-01-07 17:24:00,
2013-01-07 12:28:00,29.6,17.4,30.38,South,172,1.0,6.0,60,0.00,,,0.00,Wunderground v.1.15,2013-01-07 17:28:00,
2013-01-07 12:29:00,29.5,17.7,30.38,South,172,2.0,6.0,61,0.00,,,0.00,Wunderground v.1.15,2013-01-07 17:29:00,
2013-01-07 12:33:00,29.5,17.7,30.38,South,172,1.0,5.0,61,0.00,,,0.00,Wunderground v.1.15,2013-01-07 17:33:00,
2013-01-07 12:34:00,29.5,17.3,30.38,South,172,2.0,5.0,60,0.00,,,0.00,Wunderground v.1.15,2013-01-07 17:34:00,
2013-01-07 12:38:00,29.3,16.7,30.38,South,172,2.0,5.0,59,0.00,,,0.00,Wunderground v.1.15,2013-01-07 17:38:00,
2013-01-07 12:39:00,29.2,16.6,30.38,South,172,0.0,5.0,59,0.00,,,0.00,Wunderground v.1.15,2013-01-07 17:39:00,
2013-01-07 12:40:00,29.3,17.1,30.38,South,172,0.0,2.0,60,0.00,,,0.00,Wunderground v.1.15,2013-01-07 17:40:00,
2013-01-07 12:43:00,29.7,17.9,30.38,South,172,2.0,2.0,61,0.00,,,0.00,Wunderground v.1.15,2013-01-07 17:43:00,
2013-01-07 12:44:00,29.8,18.0,30.38,South,172,0.0,2.0,61,0.00,,,0.00,Wunderground v.1.15,2013-01-07 17:44:00,
2013-01-07 12:45:00,29.8,18.0,30.38,South,172,0.0,2.0,61,0.00,,,0.00,Wunderground v.1.15,2013-01-07 17:45:00,
2013-01-07 12:48:00,30.2,17.6,30.38,South,172,0.0,4.0,59,0.00,,,0.00,Wunderground v.1.15,2013-01-07 17:48:00,
2013-01-07 12:49:00,30.3,18.1,30.38,South,172,0.0,4.0,60,0.00,,,0.00,Wunderground v.1.15,2013-01-07 17:49:00,
2013-01-07 12:50:00,30.4,17.8,30.38,South,172,2.0,2.0,59,0.00,,,0.00,Wunderground v.1.15,2013-01-07 17:50:00,
2013-01-07 12:53:00,30.5,17.5,30.37,South,172,1.0,5.0,58,0.00,,,0.00,Wunderground v.1.15,2013-01-07 17:53:00,
2013-01-07 12:54:00,30.5,17.9,30.37,South,172,1.0,5.0,59,0.00,,,0.00,Wunderground v.1.15,2013-01-07 17:54:00,
2013-01-07 12:55:00,30.5,17.5,30.37,South,172,2.0,5.0,58,0.00,,,0.00,Wunderground v.1.15,2013-01-07 17:55:00,
2013-01-07 12:56:00,30.5,17.5,30.38,South,172,0.0,5.0,58,0.00,,,0.00,Wunderground v.1.15,2013-01-07 17:56:00,
2013-01-07 12:58:00,30.6,17.2,30.37,South,172,0.0,5.0,57,0.00,,,0.00,Wunderground v.1.15,2013-01-07 17:58:00,
2013-01-07 12:59:00,30.7,17.7,30.38,South,172,0.0,5.0,58,0.00,,,0.00,Wunderground v.1.15,2013-01-07 17:59:00,
2013-01-07 13:01:00,30.9,18.6,30.38,South,172,2.0,2.0,60,0.00,,,0.00,Wunderground v.1.15,2013-01-07 18:01:00,
2013-01-07 13:03:00,31.3,18.2,30.38,South,172,0.0,2.0,58,0.00,,,0.00,Wunderground v.1.15,2013-01-07 18:03:00,
2013-01-07 13:04:00,31.5,18.8,30.38,South,172,0.0,2.0,59,0.00,,,0.00,Wunderground v.1.15,2013-01-07 18:04:00,
2013-01-07 13:06:00,31.8,18.7,30.38,South,172,0.0,2.0,58,0.00,,,0.00,Wunderground v.1.15,2013-01-07 18:06:00,
2013-01-07 13:08:00,31.7,17.8,30.38,South,172,1.0,5.0,56,0.00,,,0.00,Wunderground v.1.15,2013-01-07 18:08:00,
2013-01-07 13:09:00,31.5,17.6,30.38,South,172,1.0,5.0,56,0.00,,,0.00,Wunderground v.1.15,2013-01-07 18:09:00,
2013-01-07 13:11:00,31.4,17.5,30.38,South,172,1.0,2.0,56,0.00,,,0.00,Wunderground v.1.15,2013-01-07 18:11:00,
2013-01-07 13:12:00,31.4,17.5,30.38,South,172,1.0,2.0,56,0.00,,,0.00,Wunderground v.1.15,2013-01-07 18:12:00,
2013-01-07 13:14:00,31.2,16.9,30.38,South,172,1.0,2.0,55,0.00,,,0.00,Wunderground v.1.15,2013-01-07 18:14:00,
2013-01-07 13:17:00,31.0,17.1,30.38,South,172,1.0,3.0,56,0.00,,,0.00,Wunderground v.1.15,2013-01-07 18:17:00,
2013-01-07 13:19:00,31.1,17.2,30.38,South,172,0.0,3.0,56,0.00,,,0.00,Wunderground v.1.15,2013-01-07 18:19:00,
2013-01-07 13:22:00,31.6,17.3,30.39,South,172,1.0,2.0,55,0.00,,,0.00,Wunderground v.1.15,2013-01-07 18:22:00,
2013-01-07 13:24:00,31.8,17.5,30.39,South,172,2.0,3.0,55,0.00,,,0.00,Wunderground v.1.15,2013-01-07 18:24:00,
2013-01-07 13:25:00,31.7,16.9,30.39,South,172,1.0,4.0,54,0.00,,,0.00,Wunderground v.1.15,2013-01-07 18:25:00,
2013-01-07 13:27:00,31.7,16.9,30.39,South,172,1.0,4.0,54,0.00,,,0.00,Wunderground v.1.15,2013-01-07 18:27:00,
2013-01-07 13:29:00,31.6,16.8,30.39,South,172,2.0,4.0,54,0.00,,,0.00,Wunderground v.1.15,2013-01-07 18:29:00,
2013-01-07 13:30:00,31.5,16.7,30.39,South,172,2.0,6.0,54,0.00,,,0.00,Wunderground v.1.15,2013-01-07 18:30:00,
2013-01-07 13:32:00,31.3,16.1,30.39,South,172,1.0,6.0,53,0.00,,,0.00,Wunderground v.1.15,2013-01-07 18:32:00,
2013-01-07 13:34:00,31.2,16.9,30.39,South,172,0.0,6.0,55,0.00,,,0.00,Wunderground v.1.15,2013-01-07 18:34:00,
2013-01-07 13:35:00,31.2,16.9,30.39,South,172,1.0,6.0,55,0.00,,,0.00,Wunderground v.1.15,2013-01-07 18:35:00,
2013-01-07 13:37:00,31.2,17.3,30.39,South,172,1.0,6.0,56,0.00,,,0.00,Wunderground v.1.15,2013-01-07 18:37:00,
2013-01-07 13:39:00,31.3,17.4,30.39,South,172,0.0,6.0,56,0.00,,,0.00,Wunderground v.1.15,2013-01-07 18:39:00,
2013-01-07 13:40:00,31.4,17.1,30.39,South,172,0.0,1.0,55,0.00,,,0.00,Wunderground v.1.15,2013-01-07 18:40:00,
2013-01-07 13:42:00,31.6,17.3,30.40,South,172,0.0,1.0,55,0.00,,,0.00,Wunderground v.1.15,2013-01-07 18:42:00,
2013-01-07 13:43:00,31.6,17.3,30.40,South,172,0.0,1.0,55,0.00,,,0.00,Wunderground v.1.15,2013-01-07 18:43:00,
2013-01-07 13:44:00,31.8,17.0,30.40,South,172,0.0,1.0,54,0.00,,,0.00,Wunderground v.1.15,2013-01-07 18:44:00,
2013-01-07 13:45:00,31.9,17.1,30.40,South,172,1.0,1.0,54,0.00,,,0.00,Wunderground v.1.15,2013-01-07 18:45:00,
2013-01-07 13:48:00,31.8,16.2,30.40,South,172,1.0,3.0,52,0.00,,,0.00,Wunderground v.1.15,2013-01-07 18:48:00,
2013-01-07 13:49:00,31.6,16.0,30.40,South,172,0.0,4.0,52,0.00,,,0.00,Wunderground v.1.15,2013-01-07 18:49:00,
2013-01-07 13:50:00,31.5,15.9,30.40,South,172,0.0,1.0,52,0.00,,,0.00,Wunderground v.1.15,2013-01-07 18:50:00,
2013-01-07 13:53:00,31.5,16.3,30.40,South,172,0.0,4.0,53,0.00,,,0.00,Wunderground v.1.15,2013-01-07 18:53:00,
2013-01-07 13:54:00,31.4,17.1,30.40,South,172,0.0,4.0,55,0.00,,,0.00,Wunderground v.1.15,2013-01-07 18:54:00,
2013-01-07 13:55:00,31.4,16.7,30.40,South,172,1.0,4.0,54,0.00,,,0.00,Wunderground v.1.15,2013-01-07 18:55:00,
2013-01-07 13:58:00,31.3,16.1,30.40,South,172,4.0,8.0,53,0.00,,,0.00,Wunderground v.1.15,2013-01-07 18:58:00,
2013-01-07 13:59:00,31.1,15.9,30.40,South,172,1.0,8.0,53,0.00,,,0.00,Wunderground v.1.15,2013-01-07 18:59:00,
2013-01-07 14:01:00,31.0,15.8,30.40,South,172,0.0,1.0,53,0.00,,,0.00,Wunderground v.1.15,2013-01-07 19:01:00,
2013-01-07 14:03:00,31.0,17.1,30.40,South,172,1.0,2.0,56,0.00,,,0.00,Wunderground v.1.15,2013-01-07 19:03:00,
2013-01-07 14:04:00,31.0,16.3,30.40,South,172,0.0,2.0,54,0.00,,,0.00,Wunderground v.1.15,2013-01-07 19:04:00,
2013-01-07 14:06:00,31.0,15.8,30.40,South,172,0.0,2.0,53,0.00,,,0.00,Wunderground v.1.15,2013-01-07 19:06:00,
2013-01-07 14:08:00,31.1,16.4,30.40,South,172,2.0,3.0,54,0.00,,,0.00,Wunderground v.1.15,2013-01-07 19:08:00,
2013-01-07 14:09:00,31.2,16.5,30.40,South,172,2.0,3.0,54,0.00,,,0.00,Wunderground v.1.15,2013-01-07 19:09:00,
2013-01-07 14:11:00,31.0,15.8,30.40,South,172,1.0,2.0,53,0.00,,,0.00,Wunderground v.1.15,2013-01-07 19:11:00,
2013-01-07 14:13:00,30.9,16.2,30.40,South,172,0.0,2.0,54,0.00,,,0.00,Wunderground v.1.15,2013-01-07 19:13:00,
2013-01-07 14:14:00,30.8,16.5,30.40,South,172,1.0,2.0,55,0.00,,,0.00,Wunderground v.1.15,2013-01-07 19:14:00,
2013-01-07 14:16:00,30.8,16.5,30.40,South,172,2.0,4.0,55,0.00,,,0.00,Wunderground v.1.15,2013-01-07 19:16:00,
2013-01-07 14:18:00,30.7,16.4,30.40,South,172,1.0,4.0,55,0.00,,,0.00,Wunderground v.1.15,2013-01-07 19:18:00,
2013-01-07 14:19:00,30.7,16.4,30.40,South,172,1.0,4.0,55,0.00,,,0.00,Wunderground v.1.15,2013-01-07 19:19:00,
2013-01-07 14:20:00,30.6,16.3,30.40,South,172,1.0,4.0,55,0.00,,,0.00,Wunderground v.1.15,2013-01-07 19:20:00,
2013-01-07 14:21:00,30.3,15.6,30.40,South,172,2.0,2.0,54,0.00,,,0.00,Wunderground v.1.15,2013-01-07 19:21:00,
2013-01-07 14:23:00,30.0,14.9,30.40,South,172,1.0,4.0,53,0.00,,,0.00,Wunderground v.1.15,2013-01-07 19:23:00,
2013-01-07 14:24:00,30.0,14.9,30.40,South,172,2.0,4.0,53,0.00,,,0.00,Wunderground v.1.15,2013-01-07 19:24:00,
2013-01-07 14:25:00,29.9,15.3,30.40,South,172,1.0,4.0,54,0.00,,,0.00,Wunderground v.1.15,2013-01-07 19:25:00,
2013-01-07 14:26:00,29.9,15.3,30.41,South,172,2.0,4.0,54,0.00,,,0.00,Wunderground v.1.15,2013-01-07 19:26:00,
2013-01-07 14:28:00,30.1,15.4,30.40,South,172,1.0,4.0,54,0.00,,,0.00,Wunderground v.1.15,2013-01-07 19:28:00,
2013-01-07 14:29:00,30.1,15.4,30.40,South,172,1.0,4.0,54,0.00,,,0.00,Wunderground v.1.15,2013-01-07 19:29:00,
2013-01-07 14:30:00,30.1,16.3,30.41,South,172,0.0,4.0,56,0.00,,,0.00,Wunderground v.1.15,2013-01-07 19:30:00,
2013-01-07 14:32:00,30.1,15.4,30.40,South,172,1.0,3.0,54,0.00,,,0.00,Wunderground v.1.15,2013-01-07 19:32:00,
2013-01-07 14:34:00,30.1,15.0,30.40,South,172,1.0,4.0,53,0.00,,,0.00,Wunderground v.1.15,2013-01-07 19:34:00,
2013-01-07 14:35:00,30.2,15.1,30.40,South,172,1.0,4.0,53,0.00,,,0.00,Wunderground v.1.15,2013-01-07 19:35:00,
2013-01-07 14:37:00,30.2,14.7,30.40,South,172,1.0,4.0,52,0.00,,,0.00,Wunderground v.1.15,2013-01-07 19:37:00,
2013-01-07 14:39:00,30.3,15.6,30.40,South,172,0.0,4.0,54,0.00,,,0.00,Wunderground v.1.15,2013-01-07 19:39:00,
2013-01-07 14:40:00,30.2,15.1,30.40,South,172,0.0,4.0,53,0.00,,,0.00,Wunderground v.1.15,2013-01-07 19:40:00,
2013-01-07 14:42:00,30.2,15.1,30.40,South,172,0.0,1.0,53,0.00,,,0.00,Wunderground v.1.15,2013-01-07 19:42:00,
2013-01-07 14:44:00,30.2,15.1,30.40,South,172,1.0,1.0,53,0.00,,,0.00,Wunderground v.1.15,2013-01-07 19:44:00,
2013-01-07 14:45:00,30.1,14.6,30.40,South,172,0.0,1.0,52,0.00,,,0.00,Wunderground v.1.15,2013-01-07 19:45:00,
2013-01-07 14:47:00,30.1,14.6,30.40,South,172,1.0,2.0,52,0.00,,,0.00,Wunderground v.1.15,2013-01-07 19:47:00,
2013-01-07 14:49:00,29.9,15.3,30.40,South,172,0.0,2.0,54,0.00,,,0.00,Wunderground v.1.15,2013-01-07 19:49:00,
2013-01-07 14:51:00,29.9,15.3,30.40,South,172,0.0,0.0,54,0.00,,,0.00,Wunderground v.1.15,2013-01-07 19:51:00,
2013-01-07 14:52:00,30.0,15.3,30.40,South,172,0.0,1.0,54,0.00,,,0.00,Wunderground v.1.15,2013-01-07 19:52:00,
2013-01-07 14:54:00,30.0,14.5,30.40,South,172,2.0,3.0,52,0.00,,,0.00,Wunderground v.1.15,2013-01-07 19:54:00,
2013-01-07 14:56:00,29.7,13.8,30.41,South,172,1.0,3.0,51,0.00,,,0.00,Wunderground v.1.15,2013-01-07 19:56:00,
2013-01-07 14:57:00,29.7,14.2,30.41,South,172,1.0,3.0,52,0.00,,,0.00,Wunderground v.1.15,2013-01-07 19:57:00,
2013-01-07 14:59:00,29.4,13.5,30.41,South,172,2.0,3.0,51,0.00,,,0.00,Wunderground v.1.15,2013-01-07 19:59:00,
2013-01-07 15:00:00,29.3,13.8,30.41,South,172,1.0,2.0,52,0.00,,,0.00,Wunderground v.1.15,2013-01-07 20:00:00,
2013-01-07 15:02:00,29.3,13.8,30.41,South,172,2.0,2.0,52,0.00,,,0.00,Wunderground v.1.15,2013-01-07 20:02:00,
2013-01-07 15:04:00,29.1,14.5,30.41,South,172,0.0,5.0,54,0.00,,,0.00,Wunderground v.1.15,2013-01-07 20:04:00,
2013-01-07 15:05:00,29.1,14.5,30.41,South,172,0.0,5.0,54,0.00,,,0.00,Wunderground v.1.15,2013-01-07 20:05:00,
2013-01-07 15:07:00,29.2,15.0,30.41,South,172,2.0,5.0,55,0.00,,,0.00,Wunderground v.1.15,2013-01-07 20:07:00,
2013-01-07 15:09:00,29.0,15.7,30.41,South,172,2.0,5.0,57,0.00,,,0.00,Wunderground v.1.15,2013-01-07 20:09:00,
2013-01-07 15:10:00,28.9,15.6,30.41,South,172,3.0,3.0,57,0.00,,,0.00,Wunderground v.1.15,2013-01-07 20:10:00,
2013-01-07 15:12:00,28.7,15.0,30.41,South,172,1.0,4.0,56,0.00,,,0.00,Wunderground v.1.15,2013-01-07 20:12:00,
2013-01-07 15:15:00,28.5,15.2,30.41,South,172,2.0,4.0,57,0.00,,,0.00,Wunderground v.1.15,2013-01-07 20:15:00,
2013-01-07 15:17:00,28.4,15.1,30.42,South,172,2.0,4.0,57,0.00,,,0.00,Wunderground v.1.15,2013-01-07 20:17:00,
2013-01-07 15:19:00,28.2,14.9,30.42,South,172,1.0,4.0,57,0.00,,,0.00,Wunderground v.1.15,2013-01-07 20:19:00,
2013-01-07 15:20:00,28.2,14.9,30.42,South,172,2.0,2.0,57,0.00,,,0.00,Wunderground v.1.15,2013-01-07 20:20:00,
2013-01-07 15:23:00,28.1,15.2,30.42,South,172,0.0,3.0,58,0.00,,,0.00,Wunderground v.1.15,2013-01-07 20:23:00,
2013-01-07 15:25:00,27.9,15.4,30.42,South,172,1.0,4.0,59,0.00,,,0.00,Wunderground v.1.15,2013-01-07 20:25:00,
2013-01-07 15:28:00,27.8,14.9,30.42,South,172,1.0,4.0,58,0.00,,,0.00,Wunderground v.1.15,2013-01-07 20:28:00,
2013-01-07 15:30:00,27.7,14.8,30.43,South,172,3.0,3.0,58,0.00,,,0.00,Wunderground v.1.15,2013-01-07 20:30:00,
2013-01-07 15:31:00,27.6,14.3,30.42,South,172,0.0,3.0,57,0.00,,,0.00,Wunderground v.1.15,2013-01-07 20:31:00,
2013-01-07 15:33:00,27.6,14.3,30.42,South,172,3.0,3.0,57,0.00,,,0.00,Wunderground v.1.15,2013-01-07 20:33:00,
2013-01-07 15:35:00,27.5,14.6,30.42,South,172,0.0,3.0,58,0.00,,,0.00,Wunderground v.1.15,2013-01-07 20:35:00,
2013-01-07 15:36:00,27.5,14.6,30.42,South,172,0.0,3.0,58,0.00,,,0.00,Wunderground v.1.15,2013-01-07 20:36:00,
2013-01-07 15:38:00,27.5,14.6,30.42,South,172,1.0,3.0,58,0.00,,,0.00,Wunderground v.1.15,2013-01-07 20:38:00,
2013-01-07 15:40:00,27.4,14.5,30.42,South,172,2.0,2.0,58,0.00,,,0.00,Wunderground v.1.15,2013-01-07 20:40:00,
2013-01-07 15:41:00,27.4,14.5,30.42,South,172,2.0,3.0,58,0.00,,,0.00,Wunderground v.1.15,2013-01-07 20:41:00,
2013-01-07 15:43:00,27.3,14.8,30.42,South,172,1.0,3.0,59,0.00,,,0.00,Wunderground v.1.15,2013-01-07 20:43:00,
2013-01-07 15:45:00,27.2,14.4,30.42,South,172,1.0,3.0,58,0.00,,,0.00,Wunderground v.1.15,2013-01-07 20:45:00,
2013-01-07 15:46:00,27.2,14.4,30.42,South,172,2.0,3.0,58,0.00,,,0.00,Wunderground v.1.15,2013-01-07 20:46:00,
2013-01-07 15:49:00,27.2,14.4,30.43,South,172,0.0,3.0,58,0.00,,,0.00,Wunderground v.1.15,2013-01-07 20:49:00,
2013-01-07 15:50:00,27.1,14.7,30.43,South,172,0.0,1.0,59,0.00,,,0.00,Wunderground v.1.15,2013-01-07 20:50:00,
2013-01-07 15:51:00,27.1,15.0,30.43,South,172,1.0,1.0,60,0.00,,,0.00,Wunderground v.1.15,2013-01-07 20:51:00,
2013-01-07 15:54:00,27.0,14.6,30.43,South,172,2.0,3.0,59,0.00,,,0.00,Wunderground v.1.15,2013-01-07 20:54:00,
2013-01-07 15:55:00,26.9,14.5,30.43,South,172,1.0,3.0,59,0.00,,,0.00,Wunderground v.1.15,2013-01-07 20:55:00,
2013-01-07 15:56:00,26.9,14.5,30.43,South,172,1.0,3.0,59,0.00,,,0.00,Wunderground v.1.15,2013-01-07 20:56:00,
2013-01-07 15:59:00,26.7,13.9,30.43,South,172,0.0,3.0,58,0.00,,,0.00,Wunderground v.1.15,2013-01-07 20:59:00,
2013-01-07 16:02:00,26.7,14.3,30.43,South,172,0.0,1.0,59,0.00,,,0.00,Wunderground v.1.15,2013-01-07 21:02:00,
2013-01-07 16:04:00,26.6,14.9,30.43,South,172,0.0,1.0,61,0.00,,,0.00,Wunderground v.1.15,2013-01-07 21:04:00,
2013-01-07 16:07:00,26.4,15.1,30.43,South,172,0.0,1.0,62,0.00,,,0.00,Wunderground v.1.15,2013-01-07 21:07:00,
2013-01-07 16:09:00,26.4,14.0,30.43,South,172,1.0,4.0,59,0.00,,,0.00,Wunderground v.1.15,2013-01-07 21:09:00,
2013-01-07 16:12:00,26.4,14.0,30.43,South,172,0.0,1.0,59,0.00,,,0.00,Wunderground v.1.15,2013-01-07 21:12:00,
2013-01-07 16:14:00,26.3,13.9,30.43,South,172,0.0,1.0,59,0.00,,,0.00,Wunderground v.1.15,2013-01-07 21:14:00,
2013-01-07 16:17:00,26.2,14.2,30.43,South,172,0.0,1.0,60,0.00,,,0.00,Wunderground v.1.15,2013-01-07 21:17:00,
2013-01-07 16:20:00,26.0,15.5,30.43,South,172,0.0,0.0,64,0.00,,,0.00,Wunderground v.1.15,2013-01-07 21:20:00,
2013-01-07 16:22:00,25.8,15.3,30.43,South,172,0.0,0.0,64,0.00,,,0.00,Wunderground v.1.15,2013-01-07 21:22:00,
2013-01-07 16:25:00,25.5,15.4,30.43,South,172,0.0,0.0,65,0.00,,,0.00,Wunderground v.1.15,2013-01-07 21:25:00,
2013-01-07 16:27:00,25.3,14.8,30.43,South,172,0.0,0.0,64,0.00,,,0.00,Wunderground v.1.15,2013-01-07 21:27:00,
2013-01-07 16:30:00,25.1,14.3,30.43,South,172,0.0,0.0,63,0.00,,,0.00,Wunderground v.1.15,2013-01-07 21:30:00,
2013-01-07 16:32:00,25.0,14.2,30.43,South,172,0.0,0.0,63,0.00,,,0.00,Wunderground v.1.15,2013-01-07 21:32:00,
2013-01-07 16:35:00,24.8,14.3,30.43,South,172,0.0,0.0,64,0.00,,,0.00,Wunderground v.1.15,2013-01-07 21:35:00,
2013-01-07 16:37:00,24.7,14.2,30.43,South,172,0.0,0.0,64,0.00,,,0.00,Wunderground v.1.15,2013-01-07 21:37:00,
2013-01-07 16:38:00,24.6,14.1,30.43,South,172,0.0,0.0,64,0.00,,,0.00,Wunderground v.1.15,2013-01-07 21:38:00,
2013-01-07 16:40:00,24.5,15.4,30.43,South,172,0.0,0.0,68,0.00,,,0.00,Wunderground v.1.15,2013-01-07 21:40:00,
2013-01-07 16:42:00,24.3,14.2,30.43,South,172,0.0,0.0,65,0.00,,,0.00,Wunderground v.1.15,2013-01-07 21:42:00,
2013-01-07 16:43:00,24.3,14.2,30.43,South,172,0.0,0.0,65,0.00,,,0.00,Wunderground v.1.15,2013-01-07 21:43:00,
2013-01-07 16:45:00,24.2,14.5,30.42,South,172,0.0,0.0,66,0.00,,,0.00,Wunderground v.1.15,2013-01-07 21:45:00,
2013-01-07 16:47:00,24.0,14.6,30.43,South,172,0.0,0.0,67,0.00,,,0.00,Wunderground v.1.15,2013-01-07 21:47:00,
2013-01-07 16:48:00,24.0,14.6,30.43,South,172,0.0,0.0,67,0.00,,,0.00,Wunderground v.1.15,2013-01-07 21:48:00,
2013-01-07 16:50:00,23.7,14.7,30.43,South,172,0.0,0.0,68,0.00,,,0.00,Wunderground v.1.15,2013-01-07 21:50:00,
2013-01-07 16:53:00,23.5,13.8,30.42,South,172,0.0,0.0,66,0.00,,,0.00,Wunderground v.1.15,2013-01-07 21:53:00,
2013-01-07 16:55:00,23.4,13.4,30.42,South,172,0.0,0.0,65,0.00,,,0.00,Wunderground v.1.15,2013-01-07 21:55:00,
2013-01-07 16:58:00,23.2,14.9,30.42,South,172,0.0,0.0,70,0.00,,,0.00,Wunderground v.1.15,2013-01-07 21:58:00,
2013-01-07 17:02:00,23.0,14.3,30.42,South,172,0.0,0.0,69,0.00,,,0.00,Wunderground v.1.15,2013-01-07 22:02:00,
2013-01-07 17:03:00,22.9,13.2,30.42,South,172,0.0,0.0,66,0.00,,,0.00,Wunderground v.1.15,2013-01-07 22:03:00,
2013-01-07 17:07:00,22.8,13.1,30.42,South,172,0.0,0.0,66,0.00,,,0.00,Wunderground v.1.15,2013-01-07 22:07:00,
2013-01-07 17:08:00,22.8,13.5,30.42,South,172,0.0,0.0,67,0.00,,,0.00,Wunderground v.1.15,2013-01-07 22:08:00,
2013-01-07 17:12:00,22.6,14.3,30.43,South,172,0.0,0.0,70,0.00,,,0.00,Wunderground v.1.15,2013-01-07 22:12:00,
2013-01-07 17:13:00,22.5,14.5,30.43,South,172,0.0,0.0,71,0.00,,,0.00,Wunderground v.1.15,2013-01-07 22:13:00,
2013-01-07 17:14:00,22.5,14.5,30.43,South,172,0.0,0.0,71,0.00,,,0.00,Wunderground v.1.15,2013-01-07 22:14:00,
2013-01-07 17:17:00,22.3,14.3,30.43,South,172,0.0,0.0,71,0.00,,,0.00,Wunderground v.1.15,2013-01-07 22:17:00,
2013-01-07 17:18:00,22.2,14.5,30.43,South,172,0.0,0.0,72,0.00,,,0.00,Wunderground v.1.15,2013-01-07 22:18:00,
2013-01-07 17:19:00,22.1,14.4,30.44,South,172,0.0,0.0,72,0.00,,,0.00,Wunderground v.1.15,2013-01-07 22:19:00,
2013-01-07 17:22:00,21.8,14.5,30.44,South,172,0.0,0.0,73,0.00,,,0.00,Wunderground v.1.15,2013-01-07 22:22:00,
2013-01-07 17:24:00,21.7,14.4,30.44,South,172,0.0,0.0,73,0.00,,,0.00,Wunderground v.1.15,2013-01-07 22:24:00,
2013-01-07 17:27:00,21.4,14.7,30.44,South,172,0.0,0.0,75,0.00,,,0.00,Wunderground v.1.15,2013-01-07 22:27:00,
2013-01-07 17:29:00,21.3,14.6,30.44,South,172,0.0,0.0,75,0.00,,,0.00,Wunderground v.1.15,2013-01-07 22:29:00,
2013-01-07 17:32:00,21.1,13.8,30.44,South,172,0.0,0.0,73,0.00,,,0.00,Wunderground v.1.15,2013-01-07 22:32:00,
2013-01-07 17:34:00,21.1,14.1,30.44,South,172,0.0,0.0,74,0.00,,,0.00,Wunderground v.1.15,2013-01-07 22:34:00,
2013-01-07 17:37:00,20.9,13.6,30.45,South,172,0.0,0.0,73,0.00,,,0.00,Wunderground v.1.15,2013-01-07 22:37:00,
2013-01-07 17:39:00,20.8,13.5,30.45,South,172,0.0,0.0,73,0.00,,,0.00,Wunderground v.1.15,2013-01-07 22:39:00,
2013-01-07 17:42:00,20.7,13.7,30.45,South,172,0.0,0.0,74,0.00,,,0.00,Wunderground v.1.15,2013-01-07 22:42:00,
2013-01-07 17:44:00,20.6,13.6,30.45,South,172,0.0,0.0,74,0.00,,,0.00,Wunderground v.1.15,2013-01-07 22:44:00,
2013-01-07 17:48:00,20.3,13.3,30.45,South,172,0.0,0.0,74,0.00,,,0.00,Wunderground v.1.15,2013-01-07 22:48:00,
2013-01-07 17:49:00,20.2,13.2,30.45,South,172,0.0,0.0,74,0.00,,,0.00,Wunderground v.1.15,2013-01-07 22:49:00,
2013-01-07 17:50:00,20.2,13.2,30.45,South,172,0.0,0.0,74,0.00,,,0.00,Wunderground v.1.15,2013-01-07 22:50:00,
2013-01-07 17:53:00,20.2,13.8,30.45,South,172,0.0,0.0,76,0.00,,,0.00,Wunderground v.1.15,2013-01-07 22:53:00,
2013-01-07 17:54:00,20.1,13.7,30.45,South,172,0.0,0.0,76,0.00,,,0.00,Wunderground v.1.15,2013-01-07 22:54:00,
2013-01-07 17:55:00,20.1,13.7,30.45,South,172,0.0,0.0,76,0.00,,,0.00,Wunderground v.1.15,2013-01-07 22:55:00,
2013-01-07 17:58:00,20.0,13.6,30.45,South,172,0.0,0.0,76,0.00,,,0.00,Wunderground v.1.15,2013-01-07 22:58:00,
2013-01-07 17:59:00,20.0,13.6,30.45,South,172,0.0,0.0,76,0.00,,,0.00,Wunderground v.1.15,2013-01-07 22:59:00,
2013-01-07 18:00:00,20.0,13.6,30.45,South,172,0.0,0.0,76,0.00,,,0.00,Wunderground v.1.15,2013-01-07 23:00:00,
2013-01-07 18:03:00,19.9,13.3,30.45,South,172,0.0,0.0,75,0.00,,,0.00,Wunderground v.1.15,2013-01-07 23:03:00,
2013-01-07 18:04:00,19.8,13.8,30.45,South,172,0.0,0.0,77,0.00,,,0.00,Wunderground v.1.15,2013-01-07 23:04:00,
2013-01-07 18:05:00,19.8,13.8,30.45,South,172,0.0,0.0,77,0.00,,,0.00,Wunderground v.1.15,2013-01-07 23:05:00,
2013-01-07 18:08:00,19.8,13.2,30.45,South,172,0.0,2.0,75,0.00,,,0.00,Wunderground v.1.15,2013-01-07 23:08:00,
2013-01-07 18:10:00,19.7,12.8,30.45,South,172,1.0,1.0,74,0.00,,,0.00,Wunderground v.1.15,2013-01-07 23:10:00,
2013-01-07 18:13:00,19.5,12.6,30.45,South,172,0.0,1.0,74,0.00,,,0.00,Wunderground v.1.15,2013-01-07 23:13:00,
2013-01-07 18:15:00,19.5,12.6,30.45,South,172,1.0,1.0,74,0.00,,,0.00,Wunderground v.1.15,2013-01-07 23:15:00,
2013-01-07 18:16:00,19.6,12.7,30.45,South,172,1.0,1.0,74,0.00,,,0.00,Wunderground v.1.15,2013-01-07 23:16:00,
2013-01-07 18:18:00,19.8,12.2,30.45,South,172,1.0,1.0,72,0.00,,,0.00,Wunderground v.1.15,2013-01-07 23:18:00,
2013-01-07 18:20:00,20.0,12.1,30.44,South,172,0.0,1.0,71,0.00,,,0.00,Wunderground v.1.15,2013-01-07 23:20:00,
2013-01-07 18:21:00,20.0,12.1,30.44,South,172,0.0,1.0,71,0.00,,,0.00,Wunderground v.1.15,2013-01-07 23:21:00,
2013-01-07 18:24:00,20.2,12.0,30.44,South,172,0.0,1.0,70,0.00,,,0.00,Wunderground v.1.15,2013-01-07 23:24:00,
2013-01-07 18:25:00,20.2,11.7,30.44,South,172,0.0,1.0,69,0.00,,,0.00,Wunderground v.1.15,2013-01-07 23:25:00,
2013-01-07 18:26:00,20.2,11.7,30.44,South,172,0.0,1.0,69,0.00,,,0.00,Wunderground v.1.15,2013-01-07 23:26:00,
2013-01-07 18:29:00,20.1,12.5,30.44,South,172,0.0,1.0,72,0.00,,,0.00,Wunderground v.1.15,2013-01-07 23:29:00,
2013-01-07 18:30:00,20.1,12.5,30.44,South,172,0.0,0.0,72,0.00,,,0.00,Wunderground v.1.15,2013-01-07 23:30:00,
2013-01-07 18:31:00,20.0,12.4,30.44,South,172,0.0,0.0,72,0.00,,,0.00,Wunderground v.1.15,2013-01-07 23:31:00,
2013-01-07 18:35:00,19.6,12.7,30.44,South,172,0.0,0.0,74,0.00,,,0.00,Wunderground v.1.15,2013-01-07 23:35:00,
2013-01-07 18:36:00,19.4,12.5,30.44,South,172,0.0,0.0,74,0.00,,,0.00,Wunderground v.1.15,2013-01-07 23:36:00,
2013-01-07 18:40:00,19.0,12.7,30.44,South,172,0.0,0.0,76,0.00,,,0.00,Wunderground v.1.15,2013-01-07 23:40:00,
2013-01-07 18:41:00,18.9,12.9,30.44,South,172,0.0,0.0,77,0.00,,,0.00,Wunderground v.1.15,2013-01-07 23:41:00,
2013-01-07 18:45:00,18.5,12.5,30.44,South,172,0.0,0.0,77,0.00,,,0.00,Wunderground v.1.15,2013-01-07 23:45:00,
2013-01-07 18:46:00,18.4,12.4,30.44,South,172,0.0,0.0,77,0.00,,,0.00,Wunderground v.1.15,2013-01-07 23:46:00,
2013-01-07 18:50:00,17.9,12.2,30.44,South,172,0.0,0.0,78,0.00,,,0.00,Wunderground v.1.15,2013-01-07 23:50:00,
2013-01-07 18:51:00,17.8,12.4,30.44,South,172,0.0,0.0,79,0.00,,,0.00,Wunderground v.1.15,2013-01-07 23:51:00,
2013-01-07 18:55:00,17.3,11.9,30.44,South,172,0.0,0.0,79,0.00,,,0.00,Wunderground v.1.15,2013-01-07 23:55:00,
2013-01-07 18:56:00,17.3,11.9,30.44,South,172,0.0,0.0,79,0.00,,,0.00,Wunderground v.1.15,2013-01-07 23:56:00,
2013-01-07 19:02:00,17.1,12.0,30.43,South,172,0.0,0.0,80,0.00,,,0.00,Wunderground v.1.15,2013-01-08 00:02:00,
2013-01-07 19:07:00,16.8,12.3,30.44,South,172,0.0,0.0,82,0.00,,,0.00,Wunderground v.1.15,2013-01-08 00:07:00,
2013-01-07 19:12:00,16.7,11.9,30.44,South,172,0.0,0.0,81,0.00,,,0.00,Wunderground v.1.15,2013-01-08 00:12:00,
2013-01-07 19:17:00,16.4,11.9,30.43,South,172,0.0,0.0,82,0.00,,,0.00,Wunderground v.1.15,2013-01-08 00:17:00,
2013-01-07 19:22:00,16.2,11.7,30.44,South,172,0.0,0.0,82,0.00,,,0.00,Wunderground v.1.15,2013-01-08 00:22:00,
2013-01-07 19:27:00,16.0,11.5,30.44,South,172,0.0,0.0,82,0.00,,,0.00,Wunderground v.1.15,2013-01-08 00:27:00,
2013-01-07 19:32:00,15.7,11.2,30.43,South,172,0.0,0.0,82,0.00,,,0.00,Wunderground v.1.15,2013-01-08 00:32:00,
2013-01-07 19:33:00,15.7,11.2,30.44,South,172,0.0,0.0,82,0.00,,,0.00,Wunderground v.1.15,2013-01-08 00:33:00,
2013-01-07 19:37:00,15.4,10.6,30.44,South,172,0.0,0.0,81,0.00,,,0.00,Wunderground v.1.15,2013-01-08 00:37:00,
2013-01-07 19:38:00,15.4,10.6,30.44,South,172,0.0,0.0,81,0.00,,,0.00,Wunderground v.1.15,2013-01-08 00:38:00,
2013-01-07 19:43:00,15.0,10.8,30.44,South,172,0.0,0.0,83,0.00,,,0.00,Wunderground v.1.15,2013-01-08 00:43:00,
2013-01-07 19:48:00,14.8,10.6,30.44,South,172,0.0,0.0,83,0.00,,,0.00,Wunderground v.1.15,2013-01-08 00:48:00,
2013-01-07 19:53:00,14.7,10.7,30.44,South,172,0.0,0.0,84,0.00,,,0.00,Wunderground v.1.15,2013-01-08 00:53:00,
2013-01-07 19:58:00,14.5,10.5,30.43,South,172,0.0,0.0,84,0.00,,,0.00,Wunderground v.1.15,2013-01-08 00:58:00,
2013-01-07 20:03:00,14.5,10.5,30.43,South,172,0.0,0.0,84,0.00,,,0.00,Wunderground v.1.15,2013-01-08 01:03:00,
2013-01-07 20:08:00,15.2,11.0,30.43,South,172,0.0,1.0,83,0.00,,,0.00,Wunderground v.1.15,2013-01-08 01:08:00,
2013-01-07 20:13:00,15.9,11.1,30.43,South,172,1.0,1.0,81,0.00,,,0.00,Wunderground v.1.15,2013-01-08 01:13:00,
2013-01-07 20:14:00,15.9,11.1,30.43,South,172,0.0,1.0,81,0.00,,,0.00,Wunderground v.1.15,2013-01-08 01:14:00,
2013-01-07 20:18:00,16.2,10.8,30.43,South,172,1.0,1.0,79,0.00,,,0.00,Wunderground v.1.15,2013-01-08 01:18:00,
2013-01-07 20:23:00,16.4,10.7,30.43,South,172,1.0,1.0,78,0.00,,,0.00,Wunderground v.1.15,2013-01-08 01:23:00,
2013-01-07 20:24:00,16.4,10.7,30.43,South,172,1.0,1.0,78,0.00,,,0.00,Wunderground v.1.15,2013-01-08 01:24:00,
2013-01-07 20:28:00,16.5,10.8,30.43,South,172,1.0,2.0,78,0.00,,,0.00,Wunderground v.1.15,2013-01-08 01:28:00,
2013-01-07 20:29:00,16.5,10.8,30.43,South,172,0.0,2.0,78,0.00,,,0.00,Wunderground v.1.15,2013-01-08 01:29:00,
2013-01-07 20:33:00,16.7,11.0,30.43,South,172,1.0,2.0,78,0.00,,,0.00,Wunderground v.1.15,2013-01-08 01:33:00,
2013-01-07 20:34:00,16.7,11.0,30.43,South,172,1.0,2.0,78,0.00,,,0.00,Wunderground v.1.15,2013-01-08 01:34:00,
2013-01-07 20:39:00,16.8,11.1,30.43,South,172,0.0,2.0,78,0.00,,,0.00,Wunderground v.1.15,2013-01-08 01:39:00,
2013-01-07 20:44:00,17.1,11.4,30.43,South,172,1.0,1.0,78,0.00,,,0.00,Wunderground v.1.15,2013-01-08 01:44:00,
2013-01-07 20:49:00,17.0,11.3,30.43,South,172,0.0,1.0,78,0.00,,,0.00,Wunderground v.1.15,2013-01-08 01:49:00,
2013-01-07 20:54:00,16.7,11.3,30.43,South,172,0.0,0.0,79,0.00,,,0.00,Wunderground v.1.15,2013-01-08 01:54:00,
2013-01-07 20:59:00,16.3,11.2,30.43,South,172,0.0,0.0,80,0.00,,,0.00,Wunderground v.1.15,2013-01-08 01:59:00,
2013-01-07 21:04:00,15.9,11.4,30.43,South,172,0.0,0.0,82,0.00,,,0.00,Wunderground v.1.15,2013-01-08 02:04:00,
2013-01-07 21:05:00,15.9,11.4,30.43,South,172,0.0,0.0,82,0.00,,,0.00,Wunderground v.1.15,2013-01-08 02:05:00,
2013-01-07 21:09:00,15.6,11.1,30.42,South,172,0.0,0.0,82,0.00,,,0.00,Wunderground v.1.15,2013-01-08 02:09:00,
2013-01-07 21:10:00,15.6,11.1,30.43,South,172,0.0,0.0,82,0.00,,,0.00,Wunderground v.1.15,2013-01-08 02:10:00,
2013-01-07 21:14:00,15.5,11.5,30.43,South,172,1.0,1.0,84,0.00,,,0.00,Wunderground v.1.15,2013-01-08 02:14:00,
2013-01-07 21:15:00,15.6,11.6,30.43,South,172,1.0,2.0,84,0.00,,,0.00,Wunderground v.1.15,2013-01-08 02:15:00,
2013-01-07 21:19:00,16.7,12.2,30.43,South,172,0.0,2.0,82,0.00,,,0.00,Wunderground v.1.15,2013-01-08 02:19:00,
2013-01-07 21:20:00,16.8,12.3,30.43,South,172,0.0,0.0,82,0.00,,,0.00,Wunderground v.1.15,2013-01-08 02:20:00,
2013-01-07 21:24:00,17.4,12.6,30.43,South,172,0.0,1.0,81,0.00,,,0.00,Wunderground v.1.15,2013-01-08 02:24:00,
2013-01-07 21:25:00,17.5,12.7,30.43,South,172,0.0,1.0,81,0.00,,,0.00,Wunderground v.1.15,2013-01-08 02:25:00,
2013-01-07 21:29:00,17.4,12.3,30.43,South,172,0.0,1.0,80,0.00,,,0.00,Wunderground v.1.15,2013-01-08 02:29:00,
2013-01-07 21:30:00,17.3,12.2,30.43,South,172,0.0,0.0,80,0.00,,,0.00,Wunderground v.1.15,2013-01-08 02:30:00,
2013-01-07 21:31:00,17.1,12.0,30.43,South,172,0.0,0.0,80,0.00,,,0.00,Wunderground v.1.15,2013-01-08 02:31:00,
2013-01-07 21:34:00,16.3,11.2,30.43,South,172,0.0,0.0,80,0.00,,,0.00,Wunderground v.1.15,2013-01-08 02:34:00,
2013-01-07 21:35:00,16.2,11.1,30.42,South,172,0.0,0.0,80,0.00,,,0.00,Wunderground v.1.15,2013-01-08 02:35:00,
2013-01-07 21:36:00,16.0,10.9,30.42,South,172,0.0,0.0,80,0.00,,,0.00,Wunderground v.1.15,2013-01-08 02:36:00,
2013-01-07 21:39:00,15.3,10.2,30.43,South,172,0.0,0.0,80,0.00,,,0.00,Wunderground v.1.15,2013-01-08 02:39:00,
2013-01-07 21:40:00,15.2,10.1,30.43,South,172,0.0,0.0,80,0.00,,,0.00,Wunderground v.1.15,2013-01-08 02:40:00,
2013-01-07 21:41:00,14.9,10.1,30.43,South,172,0.0,0.0,81,0.00,,,0.00,Wunderground v.1.15,2013-01-08 02:41:00,
2013-01-07 21:44:00,14.1,9.3,30.43,South,172,0.0,0.0,81,0.00,,,0.00,Wunderground v.1.15,2013-01-08 02:44:00,
2013-01-07 21:45:00,14.1,9.3,30.42,South,172,0.0,0.0,81,0.00,,,0.00,Wunderground v.1.15,2013-01-08 02:45:00,
2013-01-07 21:46:00,13.9,9.1,30.43,South,172,0.0,0.0,81,0.00,,,0.00,Wunderground v.1.15,2013-01-08 02:46:00,
2013-01-07 21:49:00,13.4,9.2,30.42,South,172,0.0,0.0,83,0.00,,,0.00,Wunderground v.1.15,2013-01-08 02:49:00,
2013-01-07 21:50:00,13.4,9.2,30.42,South,172,0.0,0.0,83,0.00,,,0.00,Wunderground v.1.15,2013-01-08 02:50:00,
2013-01-07 21:51:00,13.2,9.0,30.43,South,172,0.0,0.0,83,0.00,,,0.00,Wunderground v.1.15,2013-01-08 02:51:00,
2013-01-07 21:54:00,12.8,8.9,30.42,South,172,0.0,0.0,84,0.00,,,0.00,Wunderground v.1.15,2013-01-08 02:54:00,
2013-01-07 21:55:00,12.8,8.9,30.42,South,172,0.0,0.0,84,0.00,,,0.00,Wunderground v.1.15,2013-01-08 02:55:00,
2013-01-07 21:56:00,12.6,8.7,30.42,South,172,0.0,0.0,84,0.00,,,0.00,Wunderground v.1.15,2013-01-08 02:56:00,
2013-01-07 22:00:00,12.3,8.7,30.42,South,172,0.0,0.0,85,0.00,,,0.00,Wunderground v.1.15,2013-01-08 03:00:00,
2013-01-07 22:01:00,12.3,8.7,30.42,South,172,0.0,0.0,85,0.00,,,0.00,Wunderground v.1.15,2013-01-08 03:01:00,
2013-01-07 22:02:00,12.1,8.7,30.42,South,172,0.0,0.0,86,0.00,,,0.00,Wunderground v.1.15,2013-01-08 03:02:00,
2013-01-07 22:05:00,11.9,8.5,30.42,South,172,0.0,1.0,86,0.00,,,0.00,Wunderground v.1.15,2013-01-08 03:05:00,
2013-01-07 22:06:00,11.8,8.4,30.42,South,172,0.0,1.0,86,0.00,,,0.00,Wunderground v.1.15,2013-01-08 03:06:00,
2013-01-07 22:07:00,11.8,8.4,30.42,South,172,0.0,1.0,86,0.00,,,0.00,Wunderground v.1.15,2013-01-08 03:07:00,
2013-01-07 22:10:00,11.7,8.6,30.42,South,172,1.0,1.0,87,0.00,,,0.00,Wunderground v.1.15,2013-01-08 03:10:00,
2013-01-07 22:12:00,12.0,9.4,30.42,South,172,1.0,2.0,89,0.00,,,0.00,Wunderground v.1.15,2013-01-08 03:12:00,
2013-01-07 22:15:00,13.0,10.6,30.42,South,172,1.0,2.0,90,0.00,,,0.00,Wunderground v.1.15,2013-01-08 03:15:00,
2013-01-07 22:17:00,13.5,11.1,30.42,South,172,0.0,2.0,90,0.00,,,0.00,Wunderground v.1.15,2013-01-08 03:17:00,
2013-01-07 22:20:00,14.2,11.6,30.42,South,172,0.0,1.0,89,0.00,,,0.00,Wunderground v.1.15,2013-01-08 03:20:00,
2013-01-07 22:22:00,14.3,11.7,30.42,South,172,0.0,1.0,89,0.00,,,0.00,Wunderground v.1.15,2013-01-08 03:22:00,
2013-01-07 22:26:00,14.4,11.2,30.42,South,172,0.0,1.0,87,0.00,,,0.00,Wunderground v.1.15,2013-01-08 03:26:00,
2013-01-07 22:27:00,14.4,11.2,30.42,South,172,0.0,1.0,87,0.00,,,0.00,Wunderground v.1.15,2013-01-08 03:27:00,
2013-01-07 22:31:00,13.9,10.2,30.42,South,172,0.0,0.0,85,0.00,,,0.00,Wunderground v.1.15,2013-01-08 03:31:00,
2013-01-07 22:32:00,13.9,10.5,30.42,South,172,0.0,1.0,86,0.00,,,0.00,Wunderground v.1.15,2013-01-08 03:32:00,
2013-01-07 22:36:00,14.0,11.1,30.42,South,172,0.0,1.0,88,0.00,,,0.00,Wunderground v.1.15,2013-01-08 03:36:00,
2013-01-07 22:37:00,14.1,11.2,30.42,South,172,0.0,1.0,88,0.00,,,0.00,Wunderground v.1.15,2013-01-08 03:37:00,
2013-01-07 22:38:00,14.1,11.2,30.42,South,172,0.0,1.0,88,0.00,,,0.00,Wunderground v.1.15,2013-01-08 03:38:00,
2013-01-07 22:41:00,14.3,11.4,30.42,South,172,0.0,0.0,88,0.00,,,0.00,Wunderground v.1.15,2013-01-08 03:41:00,
2013-01-07 22:42:00,14.3,11.1,30.42,South,172,0.0,0.0,87,0.00,,,0.00,Wunderground v.1.15,2013-01-08 03:42:00,
2013-01-07 22:43:00,14.3,11.1,30.42,South,172,0.0,0.0,87,0.00,,,0.00,Wunderground v.1.15,2013-01-08 03:43:00,
2013-01-07 22:46:00,14.3,11.1,30.42,South,172,0.0,0.0,87,0.00,,,0.00,Wunderground v.1.15,2013-01-08 03:46:00,
2013-01-07 22:48:00,14.3,11.4,30.42,South,172,0.0,0.0,88,0.00,,,0.00,Wunderground v.1.15,2013-01-08 03:48:00,
2013-01-07 22:51:00,14.2,11.0,30.42,South,172,0.0,0.0,87,0.00,,,0.00,Wunderground v.1.15,2013-01-08 03:51:00,
2013-01-07 22:53:00,14.0,10.6,30.42,South,172,0.0,0.0,86,0.00,,,0.00,Wunderground v.1.15,2013-01-08 03:53:00,
2013-01-07 22:56:00,13.3,9.6,30.42,South,172,0.0,0.0,85,0.00,,,0.00,Wunderground v.1.15,2013-01-08 03:56:00,
2013-01-07 22:58:00,13.1,9.4,30.42,South,172,0.0,1.0,85,0.00,,,0.00,Wunderground v.1.15,2013-01-08 03:58:00,
2013-01-07 23:02:00,12.6,8.9,30.41,South,172,1.0,1.0,85,0.00,,,0.00,Wunderground v.1.15,2013-01-08 04:02:00,
2013-01-07 23:03:00,12.3,9.2,30.41,South,172,0.0,1.0,87,0.00,,,0.00,Wunderground v.1.15,2013-01-08 04:03:00,
2013-01-07 23:07:00,12.1,9.2,30.41,South,172,0.0,1.0,88,0.00,,,0.00,Wunderground v.1.15,2013-01-08 04:07:00,
2013-01-07 23:08:00,12.1,9.2,30.41,South,172,0.0,1.0,88,0.00,,,0.00,Wunderground v.1.15,2013-01-08 04:08:00,
2013-01-07 23:09:00,12.1,9.2,30.41,South,172,0.0,1.0,88,0.00,,,0.00,Wunderground v.1.15,2013-01-08 04:09:00,
2013-01-07 23:12:00,11.8,8.9,30.42,South,172,0.0,0.0,88,0.00,,,0.00,Wunderground v.1.15,2013-01-08 04:12:00,
2013-01-07 23:13:00,11.8,8.9,30.42,South,172,1.0,1.0,88,0.00,,,0.00,Wunderground v.1.15,2013-01-08 04:13:00,
2013-01-07 23:14:00,11.8,8.9,30.41,South,172,0.0,1.0,88,0.00,,,0.00,Wunderground v.1.15,2013-01-08 04:14:00,
2013-01-07 23:17:00,11.5,8.6,30.41,South,172,0.0,1.0,88,0.00,,,0.00,Wunderground v.1.15,2013-01-08 04:17:00,
2013-01-07 23:18:00,11.5,8.6,30.41,South,172,0.0,1.0,88,0.00,,,0.00,Wunderground v.1.15,2013-01-08 04:18:00,
2013-01-07 23:19:00,11.5,8.6,30.41,South,172,1.0,1.0,88,0.00,,,0.00,Wunderground v.1.15,2013-01-08 04:19:00,
2013-01-07 23:22:00,11.4,8.5,30.41,South,172,1.0,1.0,88,0.00,,,0.00,Wunderground v.1.15,2013-01-08 04:22:00,
2013-01-07 23:24:00,11.3,8.4,30.41,South,172,0.0,1.0,88,0.00,,,0.00,Wunderground v.1.15,2013-01-08 04:24:00,
2013-01-07 23:27:00,11.2,8.6,30.41,South,172,0.0,1.0,89,0.00,,,0.00,Wunderground v.1.15,2013-01-08 04:27:00,
2013-01-07 23:29:00,11.2,8.6,30.41,South,172,0.0,1.0,89,0.00,,,0.00,Wunderground v.1.15,2013-01-08 04:29:00,
2013-01-07 23:32:00,11.2,8.6,30.41,South,172,0.0,0.0,89,0.00,,,0.00,Wunderground v.1.15,2013-01-08 04:32:00,
2013-01-07 23:34:00,11.1,8.5,30.41,South,172,0.0,0.0,89,0.00,,,0.00,Wunderground v.1.15,2013-01-08 04:34:00,
2013-01-07 23:37:00,11.1,8.5,30.41,South,172,0.0,0.0,89,0.00,,,0.00,Wunderground v.1.15,2013-01-08 04:37:00,
2013-01-07 23:39:00,11.1,8.5,30.41,South,172,0.0,0.0,89,0.00,,,0.00,Wunderground v.1.15,2013-01-08 04:39:00,
2013-01-07 23:40:00,11.0,8.4,30.40,South,172,1.0,1.0,89,0.00,,,0.00,Wunderground v.1.15,2013-01-08 04:40:00,
2013-01-07 23:43:00,10.9,8.3,30.41,South,172,0.0,1.0,89,0.00,,,0.00,Wunderground v.1.15,2013-01-08 04:43:00,
2013-01-07 23:44:00,10.8,8.2,30.41,South,172,0.0,1.0,89,0.00,,,0.00,Wunderground v.1.15,2013-01-08 04:44:00,
2013-01-07 23:45:00,10.8,8.2,30.40,South,172,0.0,1.0,89,0.00,,,0.00,Wunderground v.1.15,2013-01-08 04:45:00,
2013-01-07 23:48:00,10.7,8.1,30.40,South,172,0.0,1.0,89,0.00,,,0.00,Wunderground v.1.15,2013-01-08 04:48:00,
2013-01-07 23:49:00,10.7,8.1,30.40,South,172,0.0,1.0,89,0.00,,,0.00,Wunderground v.1.15,2013-01-08 04:49:00,
2013-01-07 23:50:00,10.7,8.1,30.40,South,172,0.0,0.0,89,0.00,,,0.00,Wunderground v.1.15,2013-01-08 04:50:00,
2013-01-07 23:53:00,10.7,8.1,30.40,South,172,0.0,0.0,89,0.00,,,0.00,Wunderground v.1.15,2013-01-08 04:53:00,
2013-01-07 23:54:00,10.7,8.1,30.40,South,172,0.0,0.0,89,0.00,,,0.00,Wunderground v.1.15,2013-01-08 04:54:00,
2013-01-07 23:55:00,10.7,8.3,30.40,South,172,0.0,0.0,90,0.00,,,0.00,Wunderground v.1.15,2013-01-08 04:55:00,
2013-01-07 23:58:00,10.7,8.3,30.40,South,172,0.0,1.0,90,0.00,,,0.00,Wunderground v.1.15,2013-01-08 04:58:00,
2013-01-07 23:59:00,10.7,8.3,30.40,South,172,0.0,1.0,90,0.00,,,0.00,Wunderground v.1.15,2013-01-08 04:59:00,